Time,TemperatureF,DewpointF,PressureIn,WindDirection,WindDirectionDegrees,WindSpeedMPH,WindSpeedGustMPH,Humidity,HourlyPrecipIn,Conditions,Clouds,dailyrainin,SoftwareType,DateUTC
2009-01-22 00:03:00,47.0,45.6,30.00,SSE,165,0.0,1.0,95,0.05,,,0.00,Wunderground v.1.15,2009-01-22 08:03:00,
2009-01-22 00:05:00,47.0,45.6,29.99,SE,125,1.0,2.0,95,0.04,,,0.00,Wunderground v.1.15,2009-01-22 08:05:00,
2009-01-22 00:08:00,47.0,45.6,29.99,SE,125,0.0,2.0,95,0.04,,,0.00,Wunderground v.1.15,2009-01-22 08:08:00,
2009-01-22 00:09:00,47.0,45.6,29.99,SE,125,0.0,2.0,95,0.00,,,0.00,Wunderground v.1.15,2009-01-22 08:09:00,
2009-01-22 00:11:00,47.0,45.6,29.99,SE,126,1.0,2.0,95,0.00,,,0.00,Wunderground v.1.15,2009-01-22 08:11:00,
2009-01-22 00:14:00,46.9,45.5,29.99,East,96,3.0,3.0,95,0.00,,,0.01,Wunderground v.1.15,2009-01-22 08:14:00,
2009-01-22 00:17:00,47.0,45.6,29.99,ESE,107,0.0,3.0,95,0.18,,,0.02,Wunderground v.1.15,2009-01-22 08:17:00,
2009-01-22 00:18:00,47.0,45.6,29.99,ESE,107,0.0,3.0,95,0.18,,,0.02,Wunderground v.1.15,2009-01-22 08:18:00,
2009-01-22 00:23:00,47.0,45.6,29.98,ESE,107,0.0,0.0,95,0.10,,,0.02,Wunderground v.1.15,2009-01-22 08:23:00,
2009-01-22 00:24:00,47.1,45.7,29.99,ESE,107,0.0,0.0,95,0.10,,,0.03,Wunderground v.1.15,2009-01-22 08:24:00,
2009-01-22 00:25:00,47.1,45.7,29.99,ESE,107,0.0,0.0,95,0.10,,,0.03,Wunderground v.1.15,2009-01-22 08:25:00,
2009-01-22 00:29:00,47.1,45.7,29.99,ESE,107,0.0,1.0,95,0.09,,,0.03,Wunderground v.1.15,2009-01-22 08:29:00,
2009-01-22 00:32:00,47.1,45.7,29.98,ESE,107,0.0,1.0,95,0.07,,,0.04,Wunderground v.1.15,2009-01-22 08:32:00,
2009-01-22 00:34:00,47.2,45.8,29.98,ESE,107,0.0,1.0,95,0.07,,,0.04,Wunderground v.1.15,2009-01-22 08:34:00,
2009-01-22 00:37:00,47.3,45.9,29.98,ESE,107,0.0,1.0,95,0.07,,,0.04,Wunderground v.1.15,2009-01-22 08:37:00,
2009-01-22 00:39:00,47.3,45.9,29.98,ESE,107,0.0,1.0,95,0.07,,,0.04,Wunderground v.1.15,2009-01-22 08:39:00,
2009-01-22 00:40:00,47.4,46.0,29.98,ESE,107,0.0,0.0,95,0.08,,,0.05,Wunderground v.1.15,2009-01-22 08:40:00,
2009-01-22 00:42:00,47.4,46.0,29.98,ESE,107,0.0,0.0,95,0.08,,,0.05,Wunderground v.1.15,2009-01-22 08:42:00,
2009-01-22 00:45:00,47.5,46.1,29.98,ESE,107,0.0,0.0,95,0.08,,,0.05,Wunderground v.1.15,2009-01-22 08:45:00,
2009-01-22 00:46:00,47.5,46.1,29.98,ESE,107,0.0,0.0,95,0.09,,,0.06,Wunderground v.1.15,2009-01-22 08:46:00,
2009-01-22 00:48:00,47.6,46.2,29.98,ESE,107,0.0,0.0,95,0.09,,,0.06,Wunderground v.1.15,2009-01-22 08:48:00,
2009-01-22 00:51:00,47.6,46.2,29.98,ESE,107,0.0,0.0,95,0.09,,,0.06,Wunderground v.1.15,2009-01-22 08:51:00,
2009-01-22 00:53:00,47.6,46.2,29.98,ESE,107,0.0,0.0,95,0.08,,,0.06,Wunderground v.1.15,2009-01-22 08:53:00,
2009-01-22 00:54:00,47.5,46.1,29.98,ESE,107,0.0,0.0,95,0.07,,,0.06,Wunderground v.1.15,2009-01-22 08:54:00,
2009-01-22 00:57:00,47.5,46.1,29.98,ESE,107,1.0,1.0,95,0.05,,,0.06,Wunderground v.1.15,2009-01-22 08:57:00,
2009-01-22 00:58:00,47.4,46.0,29.98,ESE,107,1.0,1.0,95,0.05,,,0.06,Wunderground v.1.15,2009-01-22 08:58:00,
2009-01-22 00:59:00,47.5,46.1,29.97,ESE,107,0.0,1.0,95,0.05,,,0.07,Wunderground v.1.15,2009-01-22 08:59:00,
2009-01-22 01:04:00,47.5,46.1,29.98,ESE,107,0.0,1.0,95,0.05,,,0.07,Wunderground v.1.15,2009-01-22 09:04:00,
2009-01-22 01:05:00,47.5,46.1,29.98,ESE,107,0.0,1.0,95,0.05,,,0.07,Wunderground v.1.15,2009-01-22 09:05:00,
2009-01-22 01:06:00,47.5,46.1,29.98,ESE,107,0.0,1.0,95,0.09,,,0.08,Wunderground v.1.15,2009-01-22 09:06:00,
2009-01-22 01:07:00,47.5,46.1,29.98,ESE,107,0.0,1.0,95,0.09,,,0.08,Wunderground v.1.15,2009-01-22 09:07:00,
2009-01-22 01:10:00,47.5,46.1,29.98,ESE,107,0.0,0.0,95,0.09,,,0.08,Wunderground v.1.15,2009-01-22 09:10:00,
2009-01-22 01:12:00,47.6,46.2,29.98,ESE,107,0.0,0.0,95,0.08,,,0.08,Wunderground v.1.15,2009-01-22 09:12:00,
2009-01-22 01:15:00,47.5,46.1,29.98,ESE,107,0.0,0.0,95,0.06,,,0.08,Wunderground v.1.15,2009-01-22 09:15:00,
2009-01-22 01:16:00,47.6,46.2,29.98,ESE,107,0.0,0.0,95,0.05,,,0.08,Wunderground v.1.15,2009-01-22 09:16:00,
2009-01-22 01:17:00,47.6,46.2,29.97,ESE,107,0.0,0.0,95,0.05,,,0.08,Wunderground v.1.15,2009-01-22 09:17:00,
2009-01-22 01:18:00,47.6,46.2,29.97,ESE,107,0.0,0.0,95,0.05,,,0.08,Wunderground v.1.15,2009-01-22 09:18:00,
2009-01-22 01:23:00,47.7,46.3,29.98,ESE,107,0.0,0.0,95,0.00,,,0.08,Wunderground v.1.15,2009-01-22 09:23:00,
2009-01-22 01:24:00,47.7,46.3,29.97,ESE,107,0.0,0.0,95,0.00,,,0.08,Wunderground v.1.15,2009-01-22 09:24:00,
2009-01-22 01:25:00,47.7,46.6,29.98,ESE,107,0.0,0.0,96,0.00,,,0.08,Wunderground v.1.15,2009-01-22 09:25:00,
2009-01-22 01:29:00,47.7,46.6,29.98,ESE,107,0.0,0.0,96,0.00,,,0.08,Wunderground v.1.15,2009-01-22 09:29:00,
2009-01-22 01:30:00,47.7,46.6,29.98,ESE,107,0.0,0.0,96,0.00,,,0.08,Wunderground v.1.15,2009-01-22 09:30:00,
2009-01-22 01:33:00,47.8,46.7,29.97,ESE,107,0.0,1.0,96,0.00,,,0.08,Wunderground v.1.15,2009-01-22 09:33:00,
2009-01-22 01:34:00,47.8,46.7,29.97,East,83,0.0,1.0,96,0.00,,,0.08,Wunderground v.1.15,2009-01-22 09:34:00,
2009-01-22 01:35:00,47.8,46.7,29.97,East,83,0.0,1.0,96,0.00,,,0.08,Wunderground v.1.15,2009-01-22 09:35:00,
2009-01-22 01:37:00,47.8,46.7,29.97,East,83,2.0,2.0,96,0.00,,,0.08,Wunderground v.1.15,2009-01-22 09:37:00,
2009-01-22 01:38:00,47.8,46.7,29.97,East,84,0.0,2.0,96,0.00,,,0.08,Wunderground v.1.15,2009-01-22 09:38:00,
2009-01-22 01:40:00,47.8,46.7,29.97,East,83,3.0,3.0,96,0.00,,,0.09,Wunderground v.1.15,2009-01-22 09:40:00,
2009-01-22 01:41:00,47.8,46.7,29.97,East,84,0.0,3.0,96,0.00,,,0.09,Wunderground v.1.15,2009-01-22 09:41:00,
2009-01-22 01:43:00,47.8,46.7,29.97,East,83,1.0,3.0,96,0.00,,,0.09,Wunderground v.1.15,2009-01-22 09:43:00,
2009-01-22 01:47:00,47.7,46.6,29.97,East,83,3.0,3.0,96,0.11,,,0.10,Wunderground v.1.15,2009-01-22 09:47:00,
2009-01-22 01:49:00,47.7,46.3,29.96,ENE,74,3.0,3.0,95,0.11,,,0.10,Wunderground v.1.15,2009-01-22 09:49:00,
2009-01-22 01:52:00,47.6,46.2,29.96,ENE,71,3.0,3.0,95,0.08,,,0.10,Wunderground v.1.15,2009-01-22 09:52:00,
2009-01-22 01:55:00,47.5,46.1,29.96,ENE,71,5.0,5.0,95,0.06,,,0.10,Wunderground v.1.15,2009-01-22 09:55:00,
2009-01-22 01:56:00,47.4,46.0,29.96,ENE,69,5.0,5.0,95,0.05,,,0.10,Wunderground v.1.15,2009-01-22 09:56:00,
2009-01-22 01:57:00,47.4,46.0,29.97,ENE,72,3.0,5.0,95,0.05,,,0.11,Wunderground v.1.15,2009-01-22 09:57:00,
2009-01-22 02:01:00,47.3,45.9,29.97,ENE,59,3.0,3.0,95,0.05,,,0.11,Wunderground v.1.15,2009-01-22 10:01:00,
2009-01-22 02:02:00,47.3,45.9,29.97,ENE,59,3.0,3.0,95,0.05,,,0.11,Wunderground v.1.15,2009-01-22 10:02:00,
2009-01-22 02:06:00,47.3,45.9,29.97,ENE,61,2.0,5.0,95,0.05,,,0.11,Wunderground v.1.15,2009-01-22 10:06:00,
2009-01-22 02:07:00,47.3,45.9,29.97,ENE,61,0.0,5.0,95,0.05,,,0.11,Wunderground v.1.15,2009-01-22 10:07:00,
2009-01-22 02:11:00,47.3,46.2,29.97,ENE,64,3.0,5.0,96,0.05,,,0.12,Wunderground v.1.15,2009-01-22 10:11:00,
2009-01-22 02:12:00,47.3,46.2,29.97,ENE,64,1.0,5.0,96,0.05,,,0.12,Wunderground v.1.15,2009-01-22 10:12:00,
2009-01-22 02:13:00,47.3,46.2,29.97,ENE,65,3.0,5.0,96,0.05,,,0.12,Wunderground v.1.15,2009-01-22 10:13:00,
2009-01-22 02:16:00,47.4,46.3,29.97,ENE,67,2.0,5.0,96,0.05,,,0.12,Wunderground v.1.15,2009-01-22 10:16:00,
2009-01-22 02:17:00,47.4,46.3,29.97,ENE,67,3.0,5.0,96,0.05,,,0.12,Wunderground v.1.15,2009-01-22 10:17:00,
2009-01-22 02:18:00,47.4,46.3,29.97,ENE,67,4.0,5.0,96,0.05,,,0.12,Wunderground v.1.15,2009-01-22 10:18:00,
2009-01-22 02:21:00,47.5,46.4,29.97,ENE,68,0.0,3.0,96,0.05,,,0.12,Wunderground v.1.15,2009-01-22 10:21:00,
2009-01-22 02:22:00,47.5,46.4,29.97,ENE,68,0.0,3.0,96,0.04,,,0.12,Wunderground v.1.15,2009-01-22 10:22:00,
2009-01-22 02:23:00,47.5,46.4,29.97,ENE,68,0.0,3.0,96,0.04,,,0.12,Wunderground v.1.15,2009-01-22 10:23:00,
2009-01-22 02:27:00,47.5,46.4,29.97,ENE,67,2.0,6.0,96,0.00,,,0.12,Wunderground v.1.15,2009-01-22 10:27:00,
2009-01-22 02:28:00,47.5,46.4,29.97,ENE,67,0.0,6.0,96,0.00,,,0.12,Wunderground v.1.15,2009-01-22 10:28:00,
2009-01-22 02:32:00,47.5,46.4,29.97,ENE,69,2.0,4.0,96,0.00,,,0.12,Wunderground v.1.15,2009-01-22 10:32:00,
2009-01-22 02:34:00,47.5,46.4,29.97,ENE,69,0.0,4.0,96,0.00,,,0.12,Wunderground v.1.15,2009-01-22 10:34:00,
2009-01-22 02:37:00,47.4,46.3,29.97,ENE,69,0.0,4.0,96,0.00,,,0.12,Wunderground v.1.15,2009-01-22 10:37:00,
2009-01-22 02:39:00,47.4,46.3,29.97,ENE,69,0.0,4.0,96,0.00,,,0.13,Wunderground v.1.15,2009-01-22 10:39:00,
2009-01-22 02:42:00,47.4,46.3,29.97,ENE,68,0.0,1.0,96,0.00,,,0.13,Wunderground v.1.15,2009-01-22 10:42:00,
2009-01-22 02:44:00,47.4,46.3,29.97,ENE,69,0.0,1.0,96,0.00,,,0.13,Wunderground v.1.15,2009-01-22 10:44:00,
2009-01-22 02:47:00,47.4,46.3,29.97,ENE,68,0.0,1.0,96,0.00,,,0.13,Wunderground v.1.15,2009-01-22 10:47:00,
2009-01-22 02:48:00,47.4,46.3,29.97,ENE,68,0.0,1.0,96,0.00,,,0.13,Wunderground v.1.15,2009-01-22 10:48:00,
2009-01-22 02:49:00,47.4,46.3,29.97,ENE,69,0.0,1.0,96,0.00,,,0.13,Wunderground v.1.15,2009-01-22 10:49:00,
2009-01-22 02:52:00,47.7,46.6,29.97,ENE,68,0.0,1.0,96,0.00,,,0.13,Wunderground v.1.15,2009-01-22 10:52:00,
2009-01-22 02:53:00,47.7,46.6,29.97,ENE,69,0.0,1.0,96,0.00,,,0.13,Wunderground v.1.15,2009-01-22 10:53:00,
2009-01-22 02:54:00,47.7,46.6,29.97,ENE,68,0.0,1.0,96,0.00,,,0.13,Wunderground v.1.15,2009-01-22 10:54:00,
2009-01-22 02:57:00,47.8,46.7,29.96,ENE,69,0.0,1.0,96,0.04,,,0.14,Wunderground v.1.15,2009-01-22 10:57:00,
2009-01-22 02:58:00,47.8,46.7,29.96,ENE,68,0.0,1.0,96,0.04,,,0.14,Wunderground v.1.15,2009-01-22 10:58:00,
2009-01-22 03:00:00,47.8,46.7,29.97,ENE,69,0.0,0.0,96,0.04,,,0.14,Wunderground v.1.15,2009-01-22 11:00:00,
2009-01-22 03:02:00,47.9,46.8,29.96,ENE,69,0.0,0.0,96,0.04,,,0.14,Wunderground v.1.15,2009-01-22 11:02:00,
2009-01-22 03:03:00,47.9,46.8,29.96,ENE,69,0.0,0.0,96,0.04,,,0.14,Wunderground v.1.15,2009-01-22 11:03:00,
2009-01-22 03:04:00,48.0,46.9,29.96,ENE,68,0.0,0.0,96,0.04,,,0.14,Wunderground v.1.15,2009-01-22 11:04:00,
2009-01-22 03:05:00,47.9,46.8,29.97,ENE,69,0.0,0.0,96,0.04,,,0.14,Wunderground v.1.15,2009-01-22 11:05:00,
2009-01-22 03:08:00,48.0,46.9,29.97,ENE,68,0.0,1.0,96,0.04,,,0.14,Wunderground v.1.15,2009-01-22 11:08:00,
2009-01-22 03:09:00,48.1,47.0,29.97,ENE,68,0.0,1.0,96,0.04,,,0.14,Wunderground v.1.15,2009-01-22 11:09:00,
2009-01-22 03:10:00,48.1,47.0,29.97,ENE,69,0.0,0.0,96,0.04,,,0.14,Wunderground v.1.15,2009-01-22 11:10:00,
2009-01-22 03:13:00,48.0,46.9,29.97,ENE,68,0.0,1.0,96,0.00,,,0.15,Wunderground v.1.15,2009-01-22 11:13:00,
2009-01-22 03:14:00,48.0,46.9,29.97,ENE,68,0.0,1.0,96,0.00,,,0.15,Wunderground v.1.15,2009-01-22 11:14:00,
2009-01-22 03:16:00,48.0,46.9,29.97,ENE,68,1.0,1.0,96,0.00,,,0.15,Wunderground v.1.15,2009-01-22 11:16:00,
2009-01-22 03:18:00,48.0,46.9,29.97,ENE,69,1.0,2.0,96,0.00,,,0.15,Wunderground v.1.15,2009-01-22 11:18:00,
2009-01-22 03:20:00,48.0,46.9,29.97,ENE,69,0.0,0.0,96,0.00,,,0.15,Wunderground v.1.15,2009-01-22 11:20:00,
2009-01-22 03:21:00,47.9,46.8,29.97,ENE,69,1.0,2.0,96,0.00,,,0.15,Wunderground v.1.15,2009-01-22 11:21:00,
2009-01-22 03:23:00,47.9,46.8,29.97,ENE,68,0.0,2.0,96,0.00,,,0.15,Wunderground v.1.15,2009-01-22 11:23:00,
2009-01-22 03:25:00,47.9,46.8,29.97,ENE,68,1.0,3.0,96,0.00,,,0.15,Wunderground v.1.15,2009-01-22 11:25:00,
2009-01-22 03:26:00,47.8,46.7,29.97,ENE,69,0.0,3.0,96,0.00,,,0.15,Wunderground v.1.15,2009-01-22 11:26:00,
2009-01-22 03:28:00,47.8,46.7,29.97,ENE,68,0.0,3.0,96,0.00,,,0.15,Wunderground v.1.15,2009-01-22 11:28:00,
2009-01-22 03:29:00,47.8,46.7,29.97,ENE,69,0.0,3.0,96,0.00,,,0.15,Wunderground v.1.15,2009-01-22 11:29:00,
2009-01-22 03:30:00,47.8,46.7,29.97,ENE,69,0.0,0.0,96,0.00,,,0.15,Wunderground v.1.15,2009-01-22 11:30:00,
2009-01-22 03:31:00,47.7,46.6,29.97,ENE,69,0.0,0.0,96,0.00,,,0.15,Wunderground v.1.15,2009-01-22 11:31:00,
2009-01-22 03:34:00,47.7,46.6,29.97,ENE,69,0.0,2.0,96,0.00,,,0.16,Wunderground v.1.15,2009-01-22 11:34:00,
2009-01-22 03:35:00,47.6,46.5,29.97,ENE,69,0.0,2.0,96,0.00,,,0.16,Wunderground v.1.15,2009-01-22 11:35:00,
2009-01-22 03:36:00,47.6,46.5,29.97,ENE,68,1.0,2.0,96,0.00,,,0.16,Wunderground v.1.15,2009-01-22 11:36:00,
2009-01-22 03:39:00,47.6,46.5,29.97,ENE,69,1.0,2.0,96,0.12,,,0.17,Wunderground v.1.15,2009-01-22 11:39:00,
2009-01-22 03:40:00,47.5,46.4,29.97,NE,36,1.0,2.0,96,0.12,,,0.17,Wunderground v.1.15,2009-01-22 11:40:00,
2009-01-22 03:42:00,47.5,46.4,29.97,NE,36,0.0,2.0,96,0.12,,,0.17,Wunderground v.1.15,2009-01-22 11:42:00,
2009-01-22 03:44:00,47.5,46.4,29.98,NE,36,3.0,3.0,96,0.09,,,0.17,Wunderground v.1.15,2009-01-22 11:44:00,
2009-01-22 03:45:00,47.5,46.4,29.98,NE,36,1.0,3.0,96,0.08,,,0.17,Wunderground v.1.15,2009-01-22 11:45:00,
2009-01-22 03:46:00,47.4,46.3,29.98,NE,36,0.0,3.0,96,0.08,,,0.18,Wunderground v.1.15,2009-01-22 11:46:00,
2009-01-22 03:47:00,47.4,46.3,29.98,NE,36,0.0,3.0,96,0.08,,,0.18,Wunderground v.1.15,2009-01-22 11:47:00,
2009-01-22 03:49:00,47.4,46.3,29.98,NW,318,2.0,3.0,96,0.17,,,0.19,Wunderground v.1.15,2009-01-22 11:49:00,
2009-01-22 03:50:00,47.4,46.3,29.98,WNW,302,2.0,3.0,96,0.17,,,0.19,Wunderground v.1.15,2009-01-22 11:50:00,
2009-01-22 03:51:00,47.4,46.3,29.98,WNW,298,1.0,3.0,96,0.17,,,0.19,Wunderground v.1.15,2009-01-22 11:51:00,
2009-01-22 03:53:00,47.4,46.3,29.98,WNW,294,2.0,3.0,96,0.16,,,0.20,Wunderground v.1.15,2009-01-22 11:53:00,
2009-01-22 03:54:00,47.3,46.2,29.98,WNW,294,3.0,4.0,96,0.16,,,0.20,Wunderground v.1.15,2009-01-22 11:54:00,
2009-01-22 03:55:00,47.3,46.2,29.98,WNW,293,2.0,4.0,96,0.16,,,0.20,Wunderground v.1.15,2009-01-22 11:55:00,
2009-01-22 03:56:00,47.3,46.2,29.98,WNW,293,0.0,4.0,96,0.15,,,0.20,Wunderground v.1.15,2009-01-22 11:56:00,
2009-01-22 03:58:00,47.3,46.2,29.98,WNW,292,2.0,4.0,96,0.09,,,0.20,Wunderground v.1.15,2009-01-22 11:58:00,
2009-01-22 03:59:00,47.3,46.2,29.98,West,277,0.0,4.0,96,0.08,,,0.20,Wunderground v.1.15,2009-01-22 11:59:00,
2009-01-22 04:00:00,47.3,46.2,29.98,West,277,1.0,2.0,96,0.08,,,0.21,Wunderground v.1.15,2009-01-22 12:00:00,
2009-01-22 04:02:00,47.3,46.5,29.98,WNW,283,2.0,5.0,97,0.08,,,0.21,Wunderground v.1.15,2009-01-22 12:02:00,
2009-01-22 04:04:00,47.2,46.4,29.98,WNW,287,2.0,5.0,97,0.24,,,0.22,Wunderground v.1.15,2009-01-22 12:04:00,
2009-01-22 04:05:00,47.2,46.4,29.98,WNW,292,2.0,5.0,97,0.17,,,0.22,Wunderground v.1.15,2009-01-22 12:05:00,
2009-01-22 04:06:00,47.1,46.3,29.98,WNW,288,4.0,5.0,97,0.15,,,0.22,Wunderground v.1.15,2009-01-22 12:06:00,
2009-01-22 04:07:00,47.1,46.3,29.98,WNW,284,1.0,5.0,97,0.12,,,0.22,Wunderground v.1.15,2009-01-22 12:07:00,
2009-01-22 04:09:00,47.1,46.3,29.98,West,281,5.0,6.0,97,0.11,,,0.23,Wunderground v.1.15,2009-01-22 12:09:00,
2009-01-22 04:10:00,47.0,46.2,29.98,WNW,295,4.0,5.0,97,0.11,,,0.23,Wunderground v.1.15,2009-01-22 12:10:00,
2009-01-22 04:11:00,47.0,46.2,29.98,WNW,290,3.0,5.0,97,0.11,,,0.23,Wunderground v.1.15,2009-01-22 12:11:00,
2009-01-22 04:12:00,46.9,46.1,29.97,WNW,288,2.0,5.0,97,0.11,,,0.23,Wunderground v.1.15,2009-01-22 12:12:00,
2009-01-22 04:15:00,46.9,45.8,29.97,WNW,286,2.0,5.0,96,0.09,,,0.24,Wunderground v.1.15,2009-01-22 12:15:00,
2009-01-22 04:16:00,46.8,46.0,29.97,WNW,284,4.0,5.0,97,0.09,,,0.24,Wunderground v.1.15,2009-01-22 12:16:00,
2009-01-22 04:17:00,46.8,46.0,29.97,WNW,284,3.0,5.0,97,0.09,,,0.24,Wunderground v.1.15,2009-01-22 12:17:00,
2009-01-22 04:20:00,46.7,45.9,29.97,WNW,287,4.0,4.0,97,0.18,,,0.25,Wunderground v.1.15,2009-01-22 12:20:00,
2009-01-22 04:21:00,46.7,45.9,29.97,WNW,288,3.0,5.0,97,0.18,,,0.25,Wunderground v.1.15,2009-01-22 12:21:00,
2009-01-22 04:22:00,46.7,45.9,29.97,WNW,288,4.0,5.0,97,0.13,,,0.26,Wunderground v.1.15,2009-01-22 12:22:00,
2009-01-22 04:26:00,46.6,45.8,29.97,WNW,296,2.0,10.0,97,0.13,,,0.26,Wunderground v.1.15,2009-01-22 12:26:00,
2009-01-22 04:27:00,46.6,45.8,29.97,WNW,297,3.0,10.0,97,0.12,,,0.26,Wunderground v.1.15,2009-01-22 12:27:00,
2009-01-22 04:31:00,46.6,45.8,29.97,WNW,295,2.0,4.0,97,0.08,,,0.27,Wunderground v.1.15,2009-01-22 12:31:00,
2009-01-22 04:32:00,46.6,45.8,29.97,WNW,296,2.0,4.0,97,0.08,,,0.27,Wunderground v.1.15,2009-01-22 12:32:00,
2009-01-22 04:36:00,46.6,45.8,29.97,WNW,295,2.0,4.0,97,0.08,,,0.27,Wunderground v.1.15,2009-01-22 12:36:00,
2009-01-22 04:37:00,46.7,45.9,29.97,WNW,296,0.0,4.0,97,0.08,,,0.27,Wunderground v.1.15,2009-01-22 12:37:00,
2009-01-22 04:38:00,46.7,45.9,29.97,WNW,286,3.0,4.0,97,0.08,,,0.28,Wunderground v.1.15,2009-01-22 12:38:00,
2009-01-22 04:41:00,46.7,45.9,29.97,West,272,2.0,6.0,97,0.08,,,0.28,Wunderground v.1.15,2009-01-22 12:41:00,
2009-01-22 04:42:00,46.7,45.9,29.97,SW,225,3.0,6.0,97,0.08,,,0.28,Wunderground v.1.15,2009-01-22 12:42:00,
2009-01-22 04:43:00,46.8,46.0,29.97,SSW,196,12.0,12.0,97,0.08,,,0.28,Wunderground v.1.15,2009-01-22 12:43:00,
2009-01-22 04:46:00,46.8,46.0,29.97,SW,227,1.0,12.0,97,0.07,,,0.28,Wunderground v.1.15,2009-01-22 12:46:00,
2009-01-22 04:48:00,46.8,46.0,29.97,SW,227,0.0,12.0,97,0.06,,,0.28,Wunderground v.1.15,2009-01-22 12:48:00,
2009-01-22 04:52:00,46.8,46.0,29.96,SW,236,3.0,6.0,97,0.04,,,0.28,Wunderground v.1.15,2009-01-22 12:52:00,
2009-01-22 04:53:00,46.8,46.0,29.96,WNW,286,4.0,6.0,97,0.04,,,0.28,Wunderground v.1.15,2009-01-22 12:53:00,
2009-01-22 04:57:00,46.8,46.0,29.96,WSW,254,2.0,6.0,97,0.00,,,0.28,Wunderground v.1.15,2009-01-22 12:57:00,
2009-01-22 04:58:00,46.8,46.0,29.96,WSW,253,2.0,6.0,97,0.00,,,0.28,Wunderground v.1.15,2009-01-22 12:58:00,
2009-01-22 04:59:00,46.8,46.0,29.96,WSW,253,0.0,6.0,97,0.00,,,0.28,Wunderground v.1.15,2009-01-22 12:59:00,
2009-01-22 05:02:00,46.8,46.0,29.96,West,279,3.0,6.0,97,0.00,,,0.29,Wunderground v.1.15,2009-01-22 13:02:00,
2009-01-22 05:03:00,46.8,46.0,29.97,West,279,4.0,6.0,97,0.00,,,0.29,Wunderground v.1.15,2009-01-22 13:03:00,
2009-01-22 05:04:00,46.8,46.0,29.97,West,276,3.0,6.0,97,0.00,,,0.29,Wunderground v.1.15,2009-01-22 13:04:00,
2009-01-22 05:05:00,46.8,46.0,29.97,West,276,3.0,6.0,97,0.00,,,0.29,Wunderground v.1.15,2009-01-22 13:05:00,
2009-01-22 05:07:00,46.8,46.0,29.97,West,275,1.0,6.0,97,0.00,,,0.29,Wunderground v.1.15,2009-01-22 13:07:00,
2009-01-22 05:09:00,46.8,46.0,29.97,West,277,3.0,6.0,97,0.00,,,0.29,Wunderground v.1.15,2009-01-22 13:09:00,
2009-01-22 05:10:00,46.8,46.0,29.97,West,279,2.0,2.0,97,0.00,,,0.29,Wunderground v.1.15,2009-01-22 13:10:00,
2009-01-22 05:12:00,46.8,46.0,29.97,SSW,207,3.0,7.0,97,0.00,,,0.29,Wunderground v.1.15,2009-01-22 13:12:00,
2009-01-22 05:14:00,46.8,46.0,29.97,West,278,2.0,7.0,97,0.00,,,0.29,Wunderground v.1.15,2009-01-22 13:14:00,
2009-01-22 05:15:00,46.8,46.0,29.97,West,280,2.0,7.0,97,0.00,,,0.29,Wunderground v.1.15,2009-01-22 13:15:00,
2009-01-22 05:18:00,46.8,46.0,29.97,West,273,5.0,7.0,97,0.00,,,0.29,Wunderground v.1.15,2009-01-22 13:18:00,
2009-01-22 05:19:00,46.8,46.0,29.97,West,263,0.0,7.0,97,0.00,,,0.29,Wunderground v.1.15,2009-01-22 13:19:00,
2009-01-22 05:20:00,46.8,46.0,29.97,West,263,1.0,2.0,97,0.00,,,0.29,Wunderground v.1.15,2009-01-22 13:20:00,
2009-01-22 05:23:00,46.8,46.0,29.97,WSW,250,2.0,5.0,97,0.00,,,0.29,Wunderground v.1.15,2009-01-22 13:23:00,
2009-01-22 05:25:00,46.9,46.1,29.97,WNW,290,3.0,5.0,97,0.00,,,0.29,Wunderground v.1.15,2009-01-22 13:25:00,
2009-01-22 05:26:00,46.8,46.0,29.97,WNW,286,2.0,5.0,97,0.00,,,0.29,Wunderground v.1.15,2009-01-22 13:26:00,
2009-01-22 05:29:00,46.8,46.0,29.97,SW,236,1.0,5.0,97,0.00,,,0.29,Wunderground v.1.15,2009-01-22 13:29:00,
2009-01-22 05:30:00,46.8,46.0,29.97,SW,227,4.0,4.0,97,0.00,,,0.29,Wunderground v.1.15,2009-01-22 13:30:00,
2009-01-22 05:31:00,46.8,46.0,29.97,SSW,193,1.0,6.0,97,0.00,,,0.30,Wunderground v.1.15,2009-01-22 13:31:00,
2009-01-22 05:34:00,46.8,46.0,29.98,WNW,286,1.0,6.0,97,0.00,,,0.30,Wunderground v.1.15,2009-01-22 13:34:00,
2009-01-22 05:35:00,46.8,46.0,29.97,SW,234,0.0,6.0,97,0.00,,,0.30,Wunderground v.1.15,2009-01-22 13:35:00,
2009-01-22 05:36:00,46.8,46.0,29.97,WNW,303,1.0,6.0,97,0.00,,,0.30,Wunderground v.1.15,2009-01-22 13:36:00,
2009-01-22 05:39:00,46.8,46.0,29.97,WNW,290,2.0,6.0,97,0.00,,,0.30,Wunderground v.1.15,2009-01-22 13:39:00,
2009-01-22 05:40:00,46.8,46.0,29.97,WNW,290,1.0,2.0,97,0.00,,,0.30,Wunderground v.1.15,2009-01-22 13:40:00,
2009-01-22 05:41:00,46.8,46.0,29.97,WNW,290,0.0,2.0,97,0.00,,,0.30,Wunderground v.1.15,2009-01-22 13:41:00,
2009-01-22 05:44:00,46.8,46.0,29.97,WNW,290,2.0,3.0,97,0.00,,,0.30,Wunderground v.1.15,2009-01-22 13:44:00,
2009-01-22 05:45:00,46.8,46.0,29.97,WNW,290,1.0,3.0,97,0.00,,,0.30,Wunderground v.1.15,2009-01-22 13:45:00,
2009-01-22 05:46:00,46.8,46.0,29.97,WNW,290,0.0,3.0,97,0.00,,,0.30,Wunderground v.1.15,2009-01-22 13:46:00,
2009-01-22 05:50:00,46.8,46.0,29.98,WSW,248,1.0,2.0,97,0.00,,,0.30,Wunderground v.1.15,2009-01-22 13:50:00,
2009-01-22 05:51:00,46.8,46.0,29.98,SW,230,2.0,4.0,97,0.00,,,0.30,Wunderground v.1.15,2009-01-22 13:51:00,
2009-01-22 05:55:00,46.8,46.0,29.98,WSW,251,1.0,4.0,97,0.00,,,0.31,Wunderground v.1.15,2009-01-22 13:55:00,
2009-01-22 05:56:00,46.8,46.0,29.98,SSW,213,1.0,5.0,97,0.00,,,0.31,Wunderground v.1.15,2009-01-22 13:56:00,
2009-01-22 06:00:00,46.7,45.9,29.98,West,276,0.0,3.0,97,0.00,,,0.31,Wunderground v.1.15,2009-01-22 14:00:00,
2009-01-22 06:01:00,46.7,45.9,29.98,West,277,1.0,3.0,97,0.00,,,0.31,Wunderground v.1.15,2009-01-22 14:01:00,
2009-01-22 06:05:00,46.8,46.0,29.98,WSW,244,3.0,7.0,97,0.00,,,0.31,Wunderground v.1.15,2009-01-22 14:05:00,
2009-01-22 06:06:00,46.7,45.9,29.98,WSW,244,0.0,7.0,97,0.00,,,0.31,Wunderground v.1.15,2009-01-22 14:06:00,
2009-01-22 06:11:00,46.7,45.9,29.98,SW,228,1.0,5.0,97,0.00,,,0.32,Wunderground v.1.15,2009-01-22 14:11:00,
2009-01-22 06:12:00,46.7,45.9,29.98,SW,228,3.0,5.0,97,0.00,,,0.32,Wunderground v.1.15,2009-01-22 14:12:00,
2009-01-22 06:16:00,46.6,45.8,29.98,SSW,200,2.0,5.0,97,0.00,,,0.32,Wunderground v.1.15,2009-01-22 14:16:00,
2009-01-22 06:17:00,46.6,45.8,29.98,SSW,200,1.0,5.0,97,0.00,,,0.32,Wunderground v.1.15,2009-01-22 14:17:00,
2009-01-22 06:18:00,46.6,45.8,29.98,SSW,200,0.0,5.0,97,0.00,,,0.32,Wunderground v.1.15,2009-01-22 14:18:00,
2009-01-22 06:21:00,46.6,45.8,29.98,SW,236,3.0,6.0,97,0.00,,,0.32,Wunderground v.1.15,2009-01-22 14:21:00,
2009-01-22 06:22:00,46.6,45.8,29.98,SW,236,2.0,6.0,97,0.00,,,0.32,Wunderground v.1.15,2009-01-22 14:22:00,
2009-01-22 06:23:00,46.6,45.8,29.98,SW,236,1.0,6.0,97,0.00,,,0.32,Wunderground v.1.15,2009-01-22 14:23:00,
2009-01-22 06:26:00,46.6,45.8,29.98,SW,230,1.0,6.0,97,0.00,,,0.32,Wunderground v.1.15,2009-01-22 14:26:00,
2009-01-22 06:27:00,46.6,45.8,29.98,SW,230,0.0,6.0,97,0.00,,,0.32,Wunderground v.1.15,2009-01-22 14:27:00,
2009-01-22 06:28:00,46.6,45.8,29.98,SW,230,0.0,6.0,97,0.00,,,0.32,Wunderground v.1.15,2009-01-22 14:28:00,
2009-01-22 06:32:00,46.5,45.7,29.98,SW,236,0.0,3.0,97,0.00,,,0.33,Wunderground v.1.15,2009-01-22 14:32:00,
2009-01-22 06:33:00,46.6,45.8,29.98,SW,236,0.0,3.0,97,0.00,,,0.33,Wunderground v.1.15,2009-01-22 14:33:00,
2009-01-22 06:37:00,46.5,45.7,29.99,SW,236,0.0,3.0,97,0.00,,,0.33,Wunderground v.1.15,2009-01-22 14:37:00,
2009-01-22 06:38:00,46.5,45.7,29.99,SW,236,0.0,3.0,97,0.06,,,0.34,Wunderground v.1.15,2009-01-22 14:38:00,
2009-01-22 06:42:00,46.5,45.7,29.98,SW,236,2.0,3.0,97,0.06,,,0.34,Wunderground v.1.15,2009-01-22 14:42:00,
2009-01-22 06:43:00,46.5,45.7,29.98,SW,236,1.0,3.0,97,0.06,,,0.34,Wunderground v.1.15,2009-01-22 14:43:00,
2009-01-22 06:44:00,46.5,45.7,29.98,SW,236,0.0,3.0,97,0.06,,,0.34,Wunderground v.1.15,2009-01-22 14:44:00,
2009-01-22 06:47:00,46.6,45.8,29.98,SW,236,2.0,3.0,97,0.06,,,0.34,Wunderground v.1.15,2009-01-22 14:47:00,
2009-01-22 06:49:00,46.5,45.7,29.98,SW,236,0.0,3.0,97,0.05,,,0.34,Wunderground v.1.15,2009-01-22 14:49:00,
2009-01-22 06:50:00,46.5,45.7,29.98,SW,236,0.0,1.0,97,0.05,,,0.34,Wunderground v.1.15,2009-01-22 14:50:00,
2009-01-22 06:52:00,46.5,45.7,29.99,SW,236,0.0,1.0,97,0.04,,,0.34,Wunderground v.1.15,2009-01-22 14:52:00,
2009-01-22 06:54:00,46.6,45.8,29.99,SW,236,0.0,1.0,97,0.04,,,0.34,Wunderground v.1.15,2009-01-22 14:54:00,
2009-01-22 06:55:00,46.6,45.8,29.98,SW,236,0.0,1.0,97,0.00,,,0.34,Wunderground v.1.15,2009-01-22 14:55:00,
2009-01-22 06:57:00,46.6,45.8,29.99,SW,236,0.0,3.0,97,0.00,,,0.34,Wunderground v.1.15,2009-01-22 14:57:00,
2009-01-22 06:59:00,46.5,45.7,29.99,West,277,4.0,4.0,97,0.00,,,0.34,Wunderground v.1.15,2009-01-22 14:59:00,
2009-01-22 07:00:00,46.5,45.7,29.99,West,277,0.0,2.0,97,0.00,,,0.34,Wunderground v.1.15,2009-01-22 15:00:00,
2009-01-22 07:02:00,46.5,45.7,29.99,West,277,0.0,2.0,97,0.00,,,0.34,Wunderground v.1.15,2009-01-22 15:02:00,
2009-01-22 07:04:00,46.5,45.7,29.99,West,277,0.0,2.0,97,0.00,,,0.35,Wunderground v.1.15,2009-01-22 15:04:00,
2009-01-22 07:06:00,46.5,45.7,29.99,West,277,0.0,2.0,97,0.00,,,0.35,Wunderground v.1.15,2009-01-22 15:06:00,
2009-01-22 07:07:00,46.6,45.8,29.99,West,277,0.0,2.0,97,0.00,,,0.35,Wunderground v.1.15,2009-01-22 15:07:00,
2009-01-22 07:09:00,46.6,45.8,29.99,West,277,0.0,2.0,97,0.00,,,0.35,Wunderground v.1.15,2009-01-22 15:09:00,
2009-01-22 07:11:00,46.6,45.8,29.99,West,277,0.0,1.0,97,0.00,,,0.35,Wunderground v.1.15,2009-01-22 15:11:00,
2009-01-22 07:13:00,46.5,45.7,29.98,West,277,0.0,1.0,97,0.00,,,0.35,Wunderground v.1.15,2009-01-22 15:13:00,
2009-01-22 07:14:00,46.6,45.8,29.98,West,277,0.0,1.0,97,0.00,,,0.35,Wunderground v.1.15,2009-01-22 15:14:00,
2009-01-22 07:16:00,46.6,45.8,29.98,West,279,0.0,1.0,97,0.00,,,0.35,Wunderground v.1.15,2009-01-22 15:16:00,
2009-01-22 07:18:00,46.7,45.9,29.98,ENE,68,3.0,4.0,97,0.00,,,0.35,Wunderground v.1.15,2009-01-22 15:18:00,
2009-01-22 07:19:00,46.6,45.8,29.97,ENE,68,0.0,4.0,97,0.00,,,0.35,Wunderground v.1.15,2009-01-22 15:19:00,
2009-01-22 07:21:00,46.6,45.8,29.98,ENE,68,0.0,0.0,97,0.00,,,0.35,Wunderground v.1.15,2009-01-22 15:21:00,
2009-01-22 07:23:00,46.7,45.9,29.98,ENE,68,0.0,1.0,97,0.00,,,0.35,Wunderground v.1.15,2009-01-22 15:23:00,
2009-01-22 07:24:00,46.6,45.8,29.98,ENE,68,1.0,1.0,97,0.00,,,0.35,Wunderground v.1.15,2009-01-22 15:24:00,
2009-01-22 07:27:00,46.6,45.8,29.98,ENE,68,1.0,2.0,97,0.00,,,0.35,Wunderground v.1.15,2009-01-22 15:27:00,
2009-01-22 07:28:00,46.6,45.8,29.98,ENE,68,0.0,2.0,97,0.00,,,0.35,Wunderground v.1.15,2009-01-22 15:28:00,
2009-01-22 07:29:00,46.6,45.8,29.98,ENE,68,0.0,2.0,97,0.00,,,0.35,Wunderground v.1.15,2009-01-22 15:29:00,
2009-01-22 07:32:00,46.6,45.8,29.98,ENE,68,0.0,2.0,97,0.00,,,0.35,Wunderground v.1.15,2009-01-22 15:32:00,
2009-01-22 07:33:00,46.5,45.7,29.99,ENE,68,0.0,2.0,97,0.00,,,0.36,Wunderground v.1.15,2009-01-22 15:33:00,
2009-01-22 07:35:00,46.4,45.6,29.99,ENE,68,0.0,2.0,97,0.00,,,0.36,Wunderground v.1.15,2009-01-22 15:35:00,
2009-01-22 07:37:00,46.4,45.6,29.99,ENE,68,1.0,2.0,97,0.00,,,0.36,Wunderground v.1.15,2009-01-22 15:37:00,
2009-01-22 07:39:00,46.4,45.9,29.99,ENE,68,0.0,2.0,98,0.00,,,0.36,Wunderground v.1.15,2009-01-22 15:39:00,
2009-01-22 07:40:00,46.4,45.9,29.99,ENE,68,0.0,0.0,98,0.00,,,0.36,Wunderground v.1.15,2009-01-22 15:40:00,
2009-01-22 07:42:00,46.3,45.8,29.99,ENE,68,0.0,2.0,98,0.00,,,0.36,Wunderground v.1.15,2009-01-22 15:42:00,
2009-01-22 07:44:00,46.2,45.7,29.99,ENE,68,2.0,3.0,98,0.00,,,0.36,Wunderground v.1.15,2009-01-22 15:44:00,
2009-01-22 07:45:00,46.2,45.7,29.99,ENE,68,0.0,3.0,98,0.00,,,0.36,Wunderground v.1.15,2009-01-22 15:45:00,
2009-01-22 07:47:00,46.2,45.7,29.99,ENE,68,0.0,3.0,98,0.00,,,0.36,Wunderground v.1.15,2009-01-22 15:47:00,
2009-01-22 07:49:00,46.2,45.7,29.99,ENE,68,2.0,3.0,98,0.00,,,0.36,Wunderground v.1.15,2009-01-22 15:49:00,
2009-01-22 07:50:00,46.2,45.7,30.00,ENE,68,1.0,2.0,98,0.00,,,0.36,Wunderground v.1.15,2009-01-22 15:50:00,
2009-01-22 07:51:00,46.2,45.4,30.00,ENE,68,1.0,2.0,97,0.00,,,0.36,Wunderground v.1.15,2009-01-22 15:51:00,
2009-01-22 07:53:00,46.1,45.3,30.00,ENE,68,0.0,2.0,97,0.00,,,0.36,Wunderground v.1.15,2009-01-22 15:53:00,
2009-01-22 07:54:00,46.1,45.3,30.00,ENE,68,0.0,2.0,97,0.00,,,0.36,Wunderground v.1.15,2009-01-22 15:54:00,
2009-01-22 07:56:00,46.1,45.3,30.00,ENE,68,0.0,2.0,97,0.00,,,0.36,Wunderground v.1.15,2009-01-22 15:56:00,
2009-01-22 07:58:00,46.1,45.3,30.00,ENE,68,2.0,3.0,97,0.00,,,0.36,Wunderground v.1.15,2009-01-22 15:58:00,
2009-01-22 07:59:00,46.1,45.3,30.00,ENE,68,0.0,3.0,97,0.00,,,0.36,Wunderground v.1.15,2009-01-22 15:59:00,
2009-01-22 08:01:00,46.1,45.3,30.00,ENE,68,0.0,2.0,97,0.00,,,0.36,Wunderground v.1.15,2009-01-22 16:01:00,
2009-01-22 08:03:00,46.1,45.3,30.00,ENE,68,1.0,2.0,97,0.00,,,0.36,Wunderground v.1.15,2009-01-22 16:03:00,
2009-01-22 08:04:00,46.1,45.3,30.00,ENE,68,1.0,2.0,97,0.00,,,0.36,Wunderground v.1.15,2009-01-22 16:04:00,
2009-01-22 08:06:00,46.1,45.3,30.00,ENE,68,1.0,3.0,97,0.00,,,0.36,Wunderground v.1.15,2009-01-22 16:06:00,
2009-01-22 08:08:00,46.1,45.3,30.00,ENE,68,4.0,4.0,97,0.00,,,0.36,Wunderground v.1.15,2009-01-22 16:08:00,
2009-01-22 08:09:00,46.1,45.3,30.00,ENE,68,2.0,4.0,97,0.00,,,0.36,Wunderground v.1.15,2009-01-22 16:09:00,
2009-01-22 08:11:00,46.1,45.3,30.00,ENE,69,1.0,4.0,97,0.00,,,0.36,Wunderground v.1.15,2009-01-22 16:11:00,
2009-01-22 08:14:00,46.1,45.3,30.00,ENE,71,5.0,6.0,97,0.00,,,0.36,Wunderground v.1.15,2009-01-22 16:14:00,
2009-01-22 08:15:00,46.1,45.3,30.00,ENE,67,3.0,6.0,97,0.00,,,0.36,Wunderground v.1.15,2009-01-22 16:15:00,
2009-01-22 08:16:00,46.1,45.3,30.00,ENE,66,4.0,6.0,97,0.00,,,0.36,Wunderground v.1.15,2009-01-22 16:16:00,
2009-01-22 08:17:00,46.1,45.3,30.00,ENE,72,6.0,7.0,97,0.00,,,0.36,Wunderground v.1.15,2009-01-22 16:17:00,
2009-01-22 08:19:00,46.1,45.3,30.00,ENE,71,4.0,7.0,97,0.00,,,0.36,Wunderground v.1.15,2009-01-22 16:19:00,
2009-01-22 08:21:00,46.0,45.2,30.00,ENE,68,3.0,6.0,97,0.00,,,0.36,Wunderground v.1.15,2009-01-22 16:21:00,
2009-01-22 08:22:00,46.0,45.2,30.00,ENE,62,3.0,6.0,97,0.00,,,0.36,Wunderground v.1.15,2009-01-22 16:22:00,
2009-01-22 08:24:00,46.0,45.2,30.00,ENE,65,4.0,6.0,97,0.00,,,0.36,Wunderground v.1.15,2009-01-22 16:24:00,
2009-01-22 08:26:00,46.0,45.5,30.00,ENE,67,1.0,6.0,98,0.00,,,0.36,Wunderground v.1.15,2009-01-22 16:26:00,
2009-01-22 08:28:00,46.0,45.5,30.00,ENE,63,4.0,6.0,98,0.00,,,0.36,Wunderground v.1.15,2009-01-22 16:28:00,
2009-01-22 08:29:00,46.1,45.6,30.00,ENE,63,3.0,6.0,98,0.00,,,0.36,Wunderground v.1.15,2009-01-22 16:29:00,
2009-01-22 08:31:00,46.1,45.6,30.01,NE,36,0.0,4.0,98,0.00,,,0.36,Wunderground v.1.15,2009-01-22 16:31:00,
2009-01-22 08:32:00,46.1,45.6,30.01,NE,36,1.0,4.0,98,0.00,,,0.36,Wunderground v.1.15,2009-01-22 16:32:00,
2009-01-22 08:33:00,46.1,45.6,30.01,NE,36,1.0,4.0,98,0.00,,,0.36,Wunderground v.1.15,2009-01-22 16:33:00,
2009-01-22 08:34:00,46.1,45.6,30.01,NE,36,0.0,4.0,98,0.00,,,0.36,Wunderground v.1.15,2009-01-22 16:34:00,
2009-01-22 08:36:00,46.2,45.7,30.01,NE,36,2.0,4.0,98,0.00,,,0.36,Wunderground v.1.15,2009-01-22 16:36:00,
2009-01-22 08:37:00,46.2,45.7,30.01,NE,36,1.0,4.0,98,0.00,,,0.36,Wunderground v.1.15,2009-01-22 16:37:00,
2009-01-22 08:38:00,46.2,45.7,30.01,NE,36,2.0,4.0,98,0.00,,,0.36,Wunderground v.1.15,2009-01-22 16:38:00,
2009-01-22 08:39:00,46.2,45.7,30.01,NE,36,0.0,4.0,98,0.00,,,0.36,Wunderground v.1.15,2009-01-22 16:39:00,
2009-01-22 08:42:00,46.3,45.8,30.01,NE,36,0.0,2.0,98,0.00,,,0.36,Wunderground v.1.15,2009-01-22 16:42:00,
2009-01-22 08:43:00,46.3,45.8,30.01,NE,36,0.0,2.0,98,0.00,,,0.36,Wunderground v.1.15,2009-01-22 16:43:00,
2009-01-22 08:45:00,46.3,45.8,30.01,NE,36,0.0,2.0,98,0.00,,,0.36,Wunderground v.1.15,2009-01-22 16:45:00,
2009-01-22 08:47:00,46.3,45.8,30.01,NE,36,0.0,2.0,98,0.00,,,0.36,Wunderground v.1.15,2009-01-22 16:47:00,
2009-01-22 08:49:00,46.3,45.8,30.02,NE,36,1.0,2.0,98,0.00,,,0.36,Wunderground v.1.15,2009-01-22 16:49:00,
2009-01-22 08:50:00,46.3,45.8,30.02,NE,36,0.0,0.0,98,0.00,,,0.36,Wunderground v.1.15,2009-01-22 16:50:00,
2009-01-22 08:52:00,46.4,45.9,30.02,NE,36,0.0,1.0,98,0.00,,,0.36,Wunderground v.1.15,2009-01-22 16:52:00,
2009-01-22 08:53:00,46.4,45.9,30.02,NE,36,0.0,1.0,98,0.00,,,0.36,Wunderground v.1.15,2009-01-22 16:53:00,
2009-01-22 08:55:00,46.4,45.9,30.02,NE,36,0.0,1.0,98,0.00,,,0.36,Wunderground v.1.15,2009-01-22 16:55:00,
2009-01-22 08:57:00,46.4,45.9,30.02,NE,36,0.0,1.0,98,0.00,,,0.36,Wunderground v.1.15,2009-01-22 16:57:00,
2009-01-22 08:58:00,46.4,45.9,30.02,NE,36,0.0,1.0,98,0.00,,,0.36,Wunderground v.1.15,2009-01-22 16:58:00,
2009-01-22 08:59:00,46.5,46.0,30.02,NE,36,0.0,1.0,98,0.00,,,0.36,Wunderground v.1.15,2009-01-22 16:59:00,
2009-01-22 09:01:00,46.5,46.0,30.02,NE,36,0.0,0.0,98,0.00,,,0.36,Wunderground v.1.15,2009-01-22 17:01:00,
2009-01-22 09:02:00,46.5,46.0,30.02,NE,36,0.0,0.0,98,0.00,,,0.36,Wunderground v.1.15,2009-01-22 17:02:00,
2009-01-22 09:03:00,46.5,46.0,30.02,NE,36,0.0,0.0,98,0.00,,,0.36,Wunderground v.1.15,2009-01-22 17:03:00,
2009-01-22 09:05:00,46.6,46.1,30.02,NE,36,0.0,0.0,98,0.00,,,0.36,Wunderground v.1.15,2009-01-22 17:05:00,
2009-01-22 09:06:00,46.6,46.1,30.02,NE,36,0.0,0.0,98,0.00,,,0.36,Wunderground v.1.15,2009-01-22 17:06:00,
2009-01-22 09:07:00,46.7,46.2,30.02,NE,36,0.0,0.0,98,0.00,,,0.36,Wunderground v.1.15,2009-01-22 17:07:00,
2009-01-22 09:08:00,46.7,46.2,30.02,NE,36,0.0,0.0,98,0.00,,,0.36,Wunderground v.1.15,2009-01-22 17:08:00,
2009-01-22 09:10:00,46.8,46.3,30.02,NE,36,0.0,0.0,98,0.00,,,0.36,Wunderground v.1.15,2009-01-22 17:10:00,
2009-01-22 09:11:00,46.8,46.3,30.02,NE,36,0.0,0.0,98,0.00,,,0.36,Wunderground v.1.15,2009-01-22 17:11:00,
2009-01-22 09:12:00,46.8,46.3,30.02,NE,36,0.0,0.0,98,0.00,,,0.36,Wunderground v.1.15,2009-01-22 17:12:00,
2009-01-22 09:13:00,46.9,46.4,30.02,NE,36,0.0,0.0,98,0.00,,,0.36,Wunderground v.1.15,2009-01-22 17:13:00,
2009-01-22 09:16:00,46.9,46.4,30.02,NE,36,0.0,0.0,98,0.00,,,0.36,Wunderground v.1.15,2009-01-22 17:16:00,
2009-01-22 09:17:00,46.9,46.4,30.02,NE,36,1.0,1.0,98,0.00,,,0.36,Wunderground v.1.15,2009-01-22 17:17:00,
2009-01-22 09:19:00,46.9,46.4,30.02,NE,36,0.0,1.0,98,0.00,,,0.36,Wunderground v.1.15,2009-01-22 17:19:00,
2009-01-22 09:21:00,46.9,46.4,30.02,NE,36,0.0,1.0,98,0.00,,,0.36,Wunderground v.1.15,2009-01-22 17:21:00,
2009-01-22 09:23:00,46.9,46.4,30.02,NE,36,0.0,1.0,98,0.00,,,0.36,Wunderground v.1.15,2009-01-22 17:23:00,
2009-01-22 09:24:00,46.8,46.3,30.02,NE,36,0.0,1.0,98,0.00,,,0.36,Wunderground v.1.15,2009-01-22 17:24:00,
2009-01-22 09:26:00,46.8,46.3,30.02,NE,36,0.0,1.0,98,0.00,,,0.36,Wunderground v.1.15,2009-01-22 17:26:00,
2009-01-22 09:27:00,46.7,46.2,30.02,NE,36,0.0,1.0,98,0.00,,,0.36,Wunderground v.1.15,2009-01-22 17:27:00,
2009-01-22 09:28:00,46.7,46.2,30.02,NE,36,0.0,1.0,98,0.00,,,0.36,Wunderground v.1.15,2009-01-22 17:28:00,
2009-01-22 09:29:00,46.7,46.2,30.02,NE,36,0.0,1.0,98,0.00,,,0.36,Wunderground v.1.15,2009-01-22 17:29:00,
2009-01-22 09:31:00,46.7,46.2,30.02,NE,36,0.0,0.0,98,0.00,,,0.36,Wunderground v.1.15,2009-01-22 17:31:00,
2009-01-22 09:32:00,46.7,46.2,30.02,NE,36,0.0,0.0,98,0.00,,,0.36,Wunderground v.1.15,2009-01-22 17:32:00,
2009-01-22 09:33:00,46.7,46.2,30.02,NE,36,0.0,0.0,98,0.00,,,0.36,Wunderground v.1.15,2009-01-22 17:33:00,
2009-01-22 09:34:00,46.7,46.2,30.02,NE,36,0.0,1.0,98,0.00,,,0.36,Wunderground v.1.15,2009-01-22 17:34:00,
2009-01-22 09:36:00,46.8,46.3,30.03,NE,36,0.0,2.0,98,0.00,,,0.36,Wunderground v.1.15,2009-01-22 17:36:00,
2009-01-22 09:37:00,46.8,46.3,30.03,NE,36,0.0,2.0,98,0.00,,,0.36,Wunderground v.1.15,2009-01-22 17:37:00,
2009-01-22 09:39:00,46.8,46.3,30.03,NE,36,0.0,2.0,98,0.00,,,0.36,Wunderground v.1.15,2009-01-22 17:39:00,
2009-01-22 09:41:00,46.8,46.3,30.03,NE,36,0.0,1.0,98,0.00,,,0.36,Wunderground v.1.15,2009-01-22 17:41:00,
2009-01-22 09:42:00,46.8,46.3,30.03,NE,36,0.0,1.0,98,0.00,,,0.36,Wunderground v.1.15,2009-01-22 17:42:00,
2009-01-22 09:44:00,46.8,46.3,30.02,NE,36,0.0,1.0,98,0.00,,,0.36,Wunderground v.1.15,2009-01-22 17:44:00,
2009-01-22 09:46:00,46.8,46.3,30.03,NE,36,0.0,1.0,98,0.00,,,0.36,Wunderground v.1.15,2009-01-22 17:46:00,
2009-01-22 09:47:00,46.8,46.3,30.02,NE,36,0.0,1.0,98,0.00,,,0.36,Wunderground v.1.15,2009-01-22 17:47:00,
2009-01-22 09:49:00,46.8,46.3,30.03,NE,36,0.0,1.0,98,0.00,,,0.36,Wunderground v.1.15,2009-01-22 17:49:00,
2009-01-22 09:51:00,46.8,46.3,30.03,NE,36,0.0,0.0,98,0.00,,,0.36,Wunderground v.1.15,2009-01-22 17:51:00,
2009-01-22 09:53:00,46.8,46.3,30.03,NE,36,0.0,1.0,98,0.00,,,0.36,Wunderground v.1.15,2009-01-22 17:53:00,
2009-01-22 09:54:00,46.8,46.3,30.03,NE,36,0.0,2.0,98,0.00,,,0.36,Wunderground v.1.15,2009-01-22 17:54:00,
2009-01-22 09:55:00,46.9,46.4,30.03,NE,36,0.0,2.0,98,0.00,,,0.36,Wunderground v.1.15,2009-01-22 17:55:00,
2009-01-22 09:56:00,46.9,46.4,30.03,NE,36,1.0,2.0,98,0.00,,,0.36,Wunderground v.1.15,2009-01-22 17:56:00,
2009-01-22 09:58:00,46.9,46.4,30.03,NE,36,0.0,2.0,98,0.00,,,0.36,Wunderground v.1.15,2009-01-22 17:58:00,
2009-01-22 10:00:00,47.0,46.5,30.03,NE,36,1.0,1.0,98,0.00,,,0.36,Wunderground v.1.15,2009-01-22 18:00:00,
2009-01-22 10:01:00,47.0,46.5,30.03,NE,36,0.0,1.0,98,0.00,,,0.36,Wunderground v.1.15,2009-01-22 18:01:00,
2009-01-22 10:03:00,47.0,46.5,30.03,NE,36,1.0,1.0,98,0.00,,,0.36,Wunderground v.1.15,2009-01-22 18:03:00,
2009-01-22 10:05:00,47.0,46.5,30.03,NE,36,3.0,3.0,98,0.00,,,0.36,Wunderground v.1.15,2009-01-22 18:05:00,
2009-01-22 10:07:00,47.0,46.5,30.03,NE,36,0.0,3.0,98,0.00,,,0.36,Wunderground v.1.15,2009-01-22 18:07:00,
2009-01-22 10:08:00,47.0,46.5,30.03,NE,36,2.0,3.0,98,0.00,,,0.36,Wunderground v.1.15,2009-01-22 18:08:00,
2009-01-22 10:10:00,47.0,46.5,30.03,NE,36,2.0,2.0,98,0.00,,,0.36,Wunderground v.1.15,2009-01-22 18:10:00,
2009-01-22 10:12:00,47.0,46.5,30.03,NE,36,0.0,2.0,98,0.00,,,0.36,Wunderground v.1.15,2009-01-22 18:12:00,
2009-01-22 10:14:00,47.0,46.5,30.03,NE,36,0.0,2.0,98,0.00,,,0.36,Wunderground v.1.15,2009-01-22 18:14:00,
2009-01-22 10:15:00,47.2,46.7,30.03,NE,36,2.0,2.0,98,0.00,,,0.36,Wunderground v.1.15,2009-01-22 18:15:00,
2009-01-22 10:17:00,47.2,46.7,30.03,NE,35,1.0,3.0,98,0.00,,,0.36,Wunderground v.1.15,2009-01-22 18:17:00,
2009-01-22 10:19:00,47.2,46.7,30.03,NNE,32,0.0,3.0,98,0.00,,,0.36,Wunderground v.1.15,2009-01-22 18:19:00,
2009-01-22 10:20:00,47.2,46.7,30.03,NNE,31,0.0,2.0,98,0.00,,,0.36,Wunderground v.1.15,2009-01-22 18:20:00,
2009-01-22 10:21:00,47.1,46.6,30.03,NNE,31,0.0,2.0,98,0.00,,,0.36,Wunderground v.1.15,2009-01-22 18:21:00,
2009-01-22 10:22:00,47.1,46.6,30.03,NNE,31,1.0,2.0,98,0.00,,,0.36,Wunderground v.1.15,2009-01-22 18:22:00,
2009-01-22 10:24:00,47.1,46.6,30.03,NNE,31,0.0,2.0,98,0.00,,,0.36,Wunderground v.1.15,2009-01-22 18:24:00,
2009-01-22 10:25:00,47.1,46.6,30.03,NNE,31,0.0,2.0,98,0.00,,,0.36,Wunderground v.1.15,2009-01-22 18:25:00,
2009-01-22 10:26:00,47.0,46.5,30.03,NNE,31,0.0,2.0,98,0.00,,,0.36,Wunderground v.1.15,2009-01-22 18:26:00,
2009-01-22 10:28:00,47.0,46.5,30.04,NNE,13,2.0,3.0,98,0.00,,,0.36,Wunderground v.1.15,2009-01-22 18:28:00,
2009-01-22 10:29:00,47.1,46.6,30.04,NW,315,1.0,3.0,98,0.00,,,0.36,Wunderground v.1.15,2009-01-22 18:29:00,
2009-01-22 10:31:00,47.1,46.6,30.04,NW,315,0.0,2.0,98,0.00,,,0.36,Wunderground v.1.15,2009-01-22 18:31:00,
2009-01-22 10:33:00,47.1,46.6,30.04,NW,315,1.0,3.0,98,0.00,,,0.36,Wunderground v.1.15,2009-01-22 18:33:00,
2009-01-22 10:35:00,47.1,46.6,30.04,NW,315,2.0,3.0,98,0.00,,,0.36,Wunderground v.1.15,2009-01-22 18:35:00,
2009-01-22 10:36:00,47.1,46.6,30.04,NW,314,2.0,3.0,98,0.00,,,0.36,Wunderground v.1.15,2009-01-22 18:36:00,
2009-01-22 10:38:00,47.2,46.7,30.04,NW,311,2.0,4.0,98,0.00,,,0.36,Wunderground v.1.15,2009-01-22 18:38:00,
2009-01-22 10:40:00,47.2,46.7,30.04,NW,311,3.0,3.0,98,0.00,,,0.36,Wunderground v.1.15,2009-01-22 18:40:00,
2009-01-22 10:41:00,47.2,46.7,30.04,NW,306,3.0,5.0,98,0.00,,,0.36,Wunderground v.1.15,2009-01-22 18:41:00,
2009-01-22 10:43:00,47.1,46.6,30.04,NW,306,2.0,5.0,98,0.00,,,0.36,Wunderground v.1.15,2009-01-22 18:43:00,
2009-01-22 10:45:00,47.2,46.7,30.04,NW,306,0.0,5.0,98,0.00,,,0.37,Wunderground v.1.15,2009-01-22 18:45:00,
2009-01-22 10:46:00,47.2,46.7,30.04,NW,306,0.0,5.0,98,0.00,,,0.37,Wunderground v.1.15,2009-01-22 18:46:00,
2009-01-22 10:48:00,47.2,46.7,30.04,NW,306,0.0,5.0,98,0.00,,,0.37,Wunderground v.1.15,2009-01-22 18:48:00,
2009-01-22 10:50:00,47.3,46.8,30.04,NW,306,3.0,4.0,98,0.00,,,0.37,Wunderground v.1.15,2009-01-22 18:50:00,
2009-01-22 10:51:00,47.2,46.7,30.04,NW,304,3.0,4.0,98,0.00,,,0.37,Wunderground v.1.15,2009-01-22 18:51:00,
2009-01-22 10:54:00,47.3,46.8,30.04,NW,304,0.0,4.0,98,0.00,,,0.37,Wunderground v.1.15,2009-01-22 18:54:00,
2009-01-22 10:56:00,47.3,46.8,30.04,NW,305,3.0,4.0,98,0.00,,,0.37,Wunderground v.1.15,2009-01-22 18:56:00,
2009-01-22 10:57:00,47.3,46.8,30.04,NW,304,2.0,4.0,98,0.00,,,0.37,Wunderground v.1.15,2009-01-22 18:57:00,
2009-01-22 10:59:00,47.4,46.9,30.04,NW,305,1.0,4.0,98,0.00,,,0.37,Wunderground v.1.15,2009-01-22 18:59:00,
2009-01-22 11:00:00,47.4,46.9,30.04,NW,305,1.0,2.0,98,0.00,,,0.37,Wunderground v.1.15,2009-01-22 19:00:00,
2009-01-22 11:01:00,47.3,46.8,30.04,NW,307,3.0,5.0,98,0.00,,,0.37,Wunderground v.1.15,2009-01-22 19:01:00,
2009-01-22 11:02:00,47.4,46.9,30.04,NW,304,3.0,5.0,98,0.00,,,0.37,Wunderground v.1.15,2009-01-22 19:02:00,
2009-01-22 11:04:00,47.3,46.8,30.04,NW,304,2.0,5.0,98,0.00,,,0.37,Wunderground v.1.15,2009-01-22 19:04:00,
2009-01-22 11:05:00,47.3,46.8,30.04,NW,305,2.0,5.0,98,0.00,,,0.37,Wunderground v.1.15,2009-01-22 19:05:00,
2009-01-22 11:06:00,47.3,46.8,30.04,NW,304,2.0,5.0,98,0.00,,,0.37,Wunderground v.1.15,2009-01-22 19:06:00,
2009-01-22 11:07:00,47.4,46.9,30.04,NW,304,2.0,5.0,98,0.00,,,0.37,Wunderground v.1.15,2009-01-22 19:07:00,
2009-01-22 11:09:00,47.4,46.9,30.04,NW,304,0.0,5.0,98,0.00,,,0.37,Wunderground v.1.15,2009-01-22 19:09:00,
2009-01-22 11:10:00,47.4,46.9,30.03,NW,304,2.0,4.0,98,0.00,,,0.37,Wunderground v.1.15,2009-01-22 19:10:00,
2009-01-22 11:11:00,47.4,46.9,30.04,NW,304,0.0,4.0,98,0.00,,,0.38,Wunderground v.1.15,2009-01-22 19:11:00,
2009-01-22 11:13:00,47.4,46.9,30.03,NW,304,1.0,4.0,98,0.00,,,0.38,Wunderground v.1.15,2009-01-22 19:13:00,
2009-01-22 11:14:00,47.4,46.9,30.03,NW,304,2.0,4.0,98,0.00,,,0.38,Wunderground v.1.15,2009-01-22 19:14:00,
2009-01-22 11:15:00,47.4,46.9,30.03,WNW,302,3.0,5.0,98,0.00,,,0.38,Wunderground v.1.15,2009-01-22 19:15:00,
2009-01-22 11:16:00,47.4,46.9,30.03,NW,304,3.0,5.0,98,0.00,,,0.38,Wunderground v.1.15,2009-01-22 19:16:00,
2009-01-22 11:18:00,47.4,46.9,30.03,WNW,303,0.0,5.0,98,0.00,,,0.38,Wunderground v.1.15,2009-01-22 19:18:00,
2009-01-22 11:19:00,47.3,46.8,30.03,WNW,303,2.0,5.0,98,0.00,,,0.38,Wunderground v.1.15,2009-01-22 19:19:00,
2009-01-22 11:20:00,47.4,46.9,30.03,WNW,303,0.0,2.0,98,0.00,,,0.38,Wunderground v.1.15,2009-01-22 19:20:00,
2009-01-22 11:22:00,47.4,46.9,30.03,NW,304,0.0,2.0,98,0.00,,,0.38,Wunderground v.1.15,2009-01-22 19:22:00,
2009-01-22 11:23:00,47.4,46.9,30.03,NW,304,0.0,2.0,98,0.00,,,0.38,Wunderground v.1.15,2009-01-22 19:23:00,
2009-01-22 11:24:00,47.4,46.9,30.03,NW,304,2.0,2.0,98,0.00,,,0.38,Wunderground v.1.15,2009-01-22 19:24:00,
2009-01-22 11:26:00,47.4,46.9,30.03,NW,304,1.0,3.0,98,0.00,,,0.38,Wunderground v.1.15,2009-01-22 19:26:00,
2009-01-22 11:27:00,47.4,46.9,30.03,NW,304,0.0,3.0,98,0.00,,,0.38,Wunderground v.1.15,2009-01-22 19:27:00,
2009-01-22 11:28:00,47.5,47.0,30.03,WNW,303,1.0,3.0,98,0.00,,,0.38,Wunderground v.1.15,2009-01-22 19:28:00,
2009-01-22 11:29:00,47.6,47.1,30.03,WNW,303,0.0,3.0,98,0.00,,,0.38,Wunderground v.1.15,2009-01-22 19:29:00,
2009-01-22 11:31:00,47.6,47.1,30.03,NW,304,0.0,1.0,98,0.00,,,0.38,Wunderground v.1.15,2009-01-22 19:31:00,
2009-01-22 11:32:00,47.6,47.1,30.03,NW,304,0.0,2.0,98,0.00,,,0.38,Wunderground v.1.15,2009-01-22 19:32:00,
2009-01-22 11:33:00,47.6,47.1,30.03,NW,304,0.0,2.0,98,0.00,,,0.38,Wunderground v.1.15,2009-01-22 19:33:00,
2009-01-22 11:35:00,47.6,47.1,30.03,NW,304,0.0,2.0,98,0.00,,,0.38,Wunderground v.1.15,2009-01-22 19:35:00,
2009-01-22 11:36:00,47.6,47.1,30.03,NW,304,0.0,2.0,98,0.00,,,0.38,Wunderground v.1.15,2009-01-22 19:36:00,
2009-01-22 11:37:00,47.7,47.2,30.03,NW,304,1.0,2.0,98,0.00,,,0.38,Wunderground v.1.15,2009-01-22 19:37:00,
2009-01-22 11:39:00,47.7,47.2,30.03,NW,304,0.0,3.0,98,0.00,,,0.38,Wunderground v.1.15,2009-01-22 19:39:00,
2009-01-22 11:40:00,47.7,47.2,30.03,WNW,303,2.0,3.0,98,0.00,,,0.38,Wunderground v.1.15,2009-01-22 19:40:00,
2009-01-22 11:41:00,47.7,47.2,30.03,WNW,303,0.0,3.0,98,0.00,,,0.38,Wunderground v.1.15,2009-01-22 19:41:00,
2009-01-22 11:42:00,47.7,47.2,30.03,WNW,303,2.0,3.0,98,0.00,,,0.38,Wunderground v.1.15,2009-01-22 19:42:00,
2009-01-22 11:45:00,47.7,47.2,30.03,WNW,303,2.0,3.0,98,0.00,,,0.38,Wunderground v.1.15,2009-01-22 19:45:00,
2009-01-22 11:47:00,47.6,47.1,30.03,WNW,303,2.0,3.0,98,0.00,,,0.38,Wunderground v.1.15,2009-01-22 19:47:00,
2009-01-22 11:50:00,47.7,47.2,30.03,WNW,303,1.0,1.0,98,0.00,,,0.38,Wunderground v.1.15,2009-01-22 19:50:00,
2009-01-22 11:52:00,47.7,47.2,30.03,WNW,303,0.0,2.0,98,0.00,,,0.38,Wunderground v.1.15,2009-01-22 19:52:00,
2009-01-22 11:53:00,47.7,47.2,30.03,WNW,303,2.0,2.0,98,0.00,,,0.38,Wunderground v.1.15,2009-01-22 19:53:00,
2009-01-22 11:55:00,47.6,47.1,30.03,WNW,303,0.0,3.0,98,0.00,,,0.38,Wunderground v.1.15,2009-01-22 19:55:00,
2009-01-22 11:56:00,47.6,47.1,30.03,WNW,303,0.0,3.0,98,0.00,,,0.38,Wunderground v.1.15,2009-01-22 19:56:00,
2009-01-22 11:57:00,47.6,47.1,30.03,WNW,303,2.0,3.0,98,0.00,,,0.38,Wunderground v.1.15,2009-01-22 19:57:00,
2009-01-22 11:58:00,47.6,47.1,30.03,WNW,303,3.0,3.0,98,0.00,,,0.38,Wunderground v.1.15,2009-01-22 19:58:00,
2009-01-22 12:00:00,47.7,47.2,30.02,WNW,303,0.0,1.0,98,0.00,,,0.38,Wunderground v.1.15,2009-01-22 20:00:00,
2009-01-22 12:01:00,47.8,47.3,30.02,WNW,303,1.0,1.0,98,0.00,,,0.38,Wunderground v.1.15,2009-01-22 20:01:00,
2009-01-22 12:02:00,47.8,47.3,30.02,WNW,303,1.0,2.0,98,0.00,,,0.38,Wunderground v.1.15,2009-01-22 20:02:00,
2009-01-22 12:03:00,47.8,47.3,30.02,WNW,303,1.0,2.0,98,0.00,,,0.38,Wunderground v.1.15,2009-01-22 20:03:00,
2009-01-22 12:06:00,47.8,47.3,30.02,WNW,303,0.0,2.0,98,0.00,,,0.38,Wunderground v.1.15,2009-01-22 20:06:00,
2009-01-22 12:07:00,47.8,47.3,30.02,WNW,303,0.0,2.0,98,0.00,,,0.38,Wunderground v.1.15,2009-01-22 20:07:00,
2009-01-22 12:09:00,47.8,47.3,30.02,WNW,303,0.0,2.0,98,0.00,,,0.38,Wunderground v.1.15,2009-01-22 20:09:00,
2009-01-22 12:11:00,47.9,47.4,30.02,WNW,303,0.0,2.0,98,0.00,,,0.38,Wunderground v.1.15,2009-01-22 20:11:00,
2009-01-22 12:12:00,47.9,47.4,30.02,WNW,303,0.0,2.0,98,0.00,,,0.38,Wunderground v.1.15,2009-01-22 20:12:00,
2009-01-22 12:14:00,48.0,47.5,30.02,WNW,303,2.0,2.0,98,0.00,,,0.38,Wunderground v.1.15,2009-01-22 20:14:00,
2009-01-22 12:15:00,48.0,47.5,30.02,WNW,303,0.0,2.0,98,0.00,,,0.38,Wunderground v.1.15,2009-01-22 20:15:00,
2009-01-22 12:16:00,48.1,47.6,30.02,WNW,303,0.0,2.0,98,0.00,,,0.38,Wunderground v.1.15,2009-01-22 20:16:00,
2009-01-22 12:17:00,48.1,47.6,30.02,WNW,303,1.0,3.0,98,0.00,,,0.38,Wunderground v.1.15,2009-01-22 20:17:00,
2009-01-22 12:19:00,48.0,47.5,30.02,WNW,303,0.0,3.0,98,0.00,,,0.38,Wunderground v.1.15,2009-01-22 20:19:00,
2009-01-22 12:21:00,48.1,47.6,30.02,WNW,303,0.0,2.0,98,0.00,,,0.38,Wunderground v.1.15,2009-01-22 20:21:00,
2009-01-22 12:22:00,48.1,47.6,30.02,WNW,303,0.0,2.0,98,0.00,,,0.38,Wunderground v.1.15,2009-01-22 20:22:00,
2009-01-22 12:24:00,47.9,47.4,30.02,WNW,303,0.0,3.0,98,0.00,,,0.38,Wunderground v.1.15,2009-01-22 20:24:00,
2009-01-22 12:26:00,48.0,47.5,30.02,WNW,303,0.0,3.0,98,0.00,,,0.38,Wunderground v.1.15,2009-01-22 20:26:00,
2009-01-22 12:27:00,48.0,47.5,30.02,WNW,303,2.0,3.0,98,0.00,,,0.38,Wunderground v.1.15,2009-01-22 20:27:00,
2009-01-22 12:28:00,48.1,47.6,30.02,WNW,303,0.0,3.0,98,0.00,,,0.38,Wunderground v.1.15,2009-01-22 20:28:00,
2009-01-22 12:29:00,48.1,47.6,30.02,WNW,303,0.0,3.0,98,0.00,,,0.38,Wunderground v.1.15,2009-01-22 20:29:00,
2009-01-22 12:31:00,48.1,47.6,30.02,WNW,303,1.0,3.0,98,0.00,,,0.38,Wunderground v.1.15,2009-01-22 20:31:00,
2009-01-22 12:32:00,48.1,47.6,30.02,WNW,303,1.0,3.0,98,0.00,,,0.38,Wunderground v.1.15,2009-01-22 20:32:00,
2009-01-22 12:34:00,48.2,47.7,30.02,WNW,303,0.0,3.0,98,0.00,,,0.38,Wunderground v.1.15,2009-01-22 20:34:00,
2009-01-22 12:36:00,48.2,47.7,30.02,WNW,303,0.0,4.0,98,0.00,,,0.38,Wunderground v.1.15,2009-01-22 20:36:00,
2009-01-22 12:37:00,48.2,48.2,30.02,WNW,303,3.0,4.0,100,0.00,,,0.38,Wunderground v.1.15,2009-01-22 20:37:00,
2009-01-22 12:39:00,48.2,47.7,30.02,NW,304,3.0,4.0,98,0.00,,,0.38,Wunderground v.1.15,2009-01-22 20:39:00,
2009-01-22 12:40:00,48.2,47.7,30.02,NW,304,3.0,3.0,98,0.00,,,0.38,Wunderground v.1.15,2009-01-22 20:40:00,
2009-01-22 12:41:00,48.2,47.7,30.02,WNW,303,0.0,3.0,98,0.00,,,0.38,Wunderground v.1.15,2009-01-22 20:41:00,
2009-01-22 12:42:00,48.3,47.8,30.02,WNW,302,2.0,5.0,98,0.00,,,0.38,Wunderground v.1.15,2009-01-22 20:42:00,
2009-01-22 12:44:00,48.3,47.8,30.02,WNW,302,2.0,5.0,98,0.00,,,0.38,Wunderground v.1.15,2009-01-22 20:44:00,
2009-01-22 12:45:00,48.3,47.8,30.02,WNW,302,1.0,5.0,98,0.00,,,0.38,Wunderground v.1.15,2009-01-22 20:45:00,
2009-01-22 12:46:00,48.3,47.8,30.02,WNW,302,2.0,5.0,98,0.00,,,0.38,Wunderground v.1.15,2009-01-22 20:46:00,
2009-01-22 12:48:00,48.2,47.7,30.02,WNW,302,3.0,5.0,98,0.00,,,0.38,Wunderground v.1.15,2009-01-22 20:48:00,
2009-01-22 12:50:00,48.1,47.6,30.02,WNW,302,4.0,5.0,98,0.00,,,0.38,Wunderground v.1.15,2009-01-22 20:50:00,
2009-01-22 12:51:00,48.1,47.6,30.02,WNW,299,1.0,5.0,98,0.00,,,0.38,Wunderground v.1.15,2009-01-22 20:51:00,
2009-01-22 12:53:00,48.2,47.7,30.02,WNW,299,4.0,5.0,98,0.00,,,0.38,Wunderground v.1.15,2009-01-22 20:53:00,
2009-01-22 12:55:00,48.2,47.7,30.02,WNW,298,4.0,5.0,98,0.00,,,0.38,Wunderground v.1.15,2009-01-22 20:55:00,
2009-01-22 12:56:00,48.1,47.6,30.02,WNW,296,4.0,5.0,98,0.00,,,0.38,Wunderground v.1.15,2009-01-22 20:56:00,
2009-01-22 12:58:00,48.1,47.6,30.02,WNW,294,4.0,5.0,98,0.00,,,0.38,Wunderground v.1.15,2009-01-22 20:58:00,
2009-01-22 13:00:00,48.2,47.7,30.02,WNW,290,3.0,4.0,98,0.00,,,0.38,Wunderground v.1.15,2009-01-22 21:00:00,
2009-01-22 13:02:00,48.1,47.6,30.02,WNW,286,1.0,5.0,98,0.00,,,0.38,Wunderground v.1.15,2009-01-22 21:02:00,
2009-01-22 13:03:00,48.2,47.7,30.02,WNW,286,2.0,5.0,98,0.00,,,0.38,Wunderground v.1.15,2009-01-22 21:03:00,
2009-01-22 13:05:00,48.2,47.7,30.02,WNW,286,2.0,5.0,98,0.00,,,0.38,Wunderground v.1.15,2009-01-22 21:05:00,
2009-01-22 13:07:00,48.3,47.8,30.02,WNW,287,1.0,5.0,98,0.00,,,0.38,Wunderground v.1.15,2009-01-22 21:07:00,
2009-01-22 13:09:00,48.4,47.9,30.02,NW,315,3.0,5.0,98,0.00,,,0.38,Wunderground v.1.15,2009-01-22 21:09:00,
2009-01-22 13:10:00,48.4,47.9,30.02,NW,314,2.0,3.0,98,0.00,,,0.38,Wunderground v.1.15,2009-01-22 21:10:00,
2009-01-22 13:11:00,48.3,47.8,30.02,NW,315,3.0,3.0,98,0.00,,,0.38,Wunderground v.1.15,2009-01-22 21:11:00,
2009-01-22 13:13:00,48.3,47.8,30.02,WNW,298,3.0,3.0,98,0.00,,,0.38,Wunderground v.1.15,2009-01-22 21:13:00,
2009-01-22 13:14:00,48.3,47.8,30.02,WNW,293,4.0,5.0,98,0.00,,,0.38,Wunderground v.1.15,2009-01-22 21:14:00,
2009-01-22 13:15:00,48.3,47.8,30.02,WNW,294,2.0,5.0,98,0.00,,,0.38,Wunderground v.1.15,2009-01-22 21:15:00,
2009-01-22 13:16:00,48.2,47.7,30.01,WNW,293,3.0,5.0,98,0.00,,,0.38,Wunderground v.1.15,2009-01-22 21:16:00,
2009-01-22 13:18:00,48.1,47.6,30.02,WNW,296,1.0,5.0,98,0.00,,,0.38,Wunderground v.1.15,2009-01-22 21:18:00,
2009-01-22 13:19:00,48.1,47.6,30.02,WNW,290,3.0,5.0,98,0.00,,,0.38,Wunderground v.1.15,2009-01-22 21:19:00,
2009-01-22 13:20:00,48.1,47.6,30.02,WNW,288,2.0,4.0,98,0.00,,,0.38,Wunderground v.1.15,2009-01-22 21:20:00,
2009-01-22 13:22:00,48.0,47.5,30.02,WNW,303,1.0,5.0,98,0.00,,,0.38,Wunderground v.1.15,2009-01-22 21:22:00,
2009-01-22 13:23:00,48.0,47.5,30.02,WNW,294,2.0,5.0,98,0.00,,,0.38,Wunderground v.1.15,2009-01-22 21:23:00,
2009-01-22 13:24:00,48.1,47.6,30.02,WNW,290,3.0,5.0,98,0.00,,,0.38,Wunderground v.1.15,2009-01-22 21:24:00,
2009-01-22 13:26:00,48.1,47.6,30.01,WNW,291,1.0,5.0,98,0.00,,,0.38,Wunderground v.1.15,2009-01-22 21:26:00,
2009-01-22 13:27:00,48.1,47.6,30.02,WNW,302,4.0,5.0,98,0.00,,,0.38,Wunderground v.1.15,2009-01-22 21:27:00,
2009-01-22 13:28:00,48.0,47.5,30.02,NW,310,3.0,5.0,98,0.00,,,0.38,Wunderground v.1.15,2009-01-22 21:28:00,
2009-01-22 13:29:00,48.0,47.5,30.01,WNW,290,3.0,6.0,98,0.00,,,0.39,Wunderground v.1.15,2009-01-22 21:29:00,
2009-01-22 13:31:00,47.9,47.4,30.02,WNW,298,2.0,4.0,98,0.00,,,0.39,Wunderground v.1.15,2009-01-22 21:31:00,
2009-01-22 13:32:00,47.9,47.4,30.01,WNW,302,4.0,6.0,98,0.00,,,0.39,Wunderground v.1.15,2009-01-22 21:32:00,
2009-01-22 13:33:00,47.9,47.4,30.02,WNW,298,4.0,6.0,98,0.00,,,0.39,Wunderground v.1.15,2009-01-22 21:33:00,
2009-01-22 13:34:00,47.9,47.4,30.01,WNW,293,3.0,6.0,98,0.00,,,0.39,Wunderground v.1.15,2009-01-22 21:34:00,
2009-01-22 13:36:00,47.8,47.3,30.02,WNW,292,1.0,6.0,98,0.00,,,0.39,Wunderground v.1.15,2009-01-22 21:36:00,
2009-01-22 13:37:00,47.8,47.3,30.02,WNW,302,3.0,6.0,98,0.00,,,0.39,Wunderground v.1.15,2009-01-22 21:37:00,
2009-01-22 13:39:00,47.8,47.3,30.02,WNW,301,3.0,6.0,98,0.00,,,0.39,Wunderground v.1.15,2009-01-22 21:39:00,
2009-01-22 13:41:00,47.7,47.2,30.02,WNW,298,4.0,5.0,98,0.00,,,0.39,Wunderground v.1.15,2009-01-22 21:41:00,
2009-01-22 13:42:00,47.6,47.1,30.02,NW,305,0.0,5.0,98,0.00,,,0.39,Wunderground v.1.15,2009-01-22 21:42:00,
2009-01-22 13:45:00,47.6,47.1,30.02,WNW,302,1.0,5.0,98,0.00,,,0.39,Wunderground v.1.15,2009-01-22 21:45:00,
2009-01-22 13:46:00,47.6,47.1,30.02,WNW,295,3.0,5.0,98,0.00,,,0.39,Wunderground v.1.15,2009-01-22 21:46:00,
2009-01-22 13:48:00,47.6,47.1,30.01,WNW,299,1.0,5.0,98,0.00,,,0.39,Wunderground v.1.15,2009-01-22 21:48:00,
2009-01-22 13:50:00,47.6,47.1,30.01,WNW,299,4.0,5.0,98,0.00,,,0.39,Wunderground v.1.15,2009-01-22 21:50:00,
2009-01-22 13:52:00,47.5,47.0,30.01,WNW,299,3.0,5.0,98,0.00,,,0.39,Wunderground v.1.15,2009-01-22 21:52:00,
2009-01-22 13:54:00,47.5,47.0,30.02,WNW,299,2.0,5.0,98,0.00,,,0.39,Wunderground v.1.15,2009-01-22 21:54:00,
2009-01-22 13:55:00,47.5,47.0,30.01,WNW,298,0.0,5.0,98,0.00,,,0.39,Wunderground v.1.15,2009-01-22 21:55:00,
2009-01-22 13:57:00,47.5,47.0,30.01,WNW,302,3.0,5.0,98,0.00,,,0.39,Wunderground v.1.15,2009-01-22 21:57:00,
2009-01-22 13:59:00,47.5,47.0,30.01,WNW,300,3.0,5.0,98,0.00,,,0.39,Wunderground v.1.15,2009-01-22 21:59:00,
2009-01-22 14:00:00,47.5,47.0,30.01,WNW,301,2.0,3.0,98,0.00,,,0.39,Wunderground v.1.15,2009-01-22 22:00:00,
2009-01-22 14:01:00,47.4,46.9,30.02,WNW,301,2.0,3.0,98,0.00,,,0.39,Wunderground v.1.15,2009-01-22 22:01:00,
2009-01-22 14:02:00,47.4,46.9,30.02,NW,306,3.0,3.0,98,0.00,,,0.39,Wunderground v.1.15,2009-01-22 22:02:00,
2009-01-22 14:04:00,47.4,46.9,30.01,NW,306,0.0,3.0,98,0.00,,,0.39,Wunderground v.1.15,2009-01-22 22:04:00,
2009-01-22 14:05:00,47.4,46.9,30.02,NW,306,0.0,3.0,98,0.00,,,0.39,Wunderground v.1.15,2009-01-22 22:05:00,
2009-01-22 14:07:00,47.5,47.0,30.02,NW,306,1.0,3.0,98,0.00,,,0.39,Wunderground v.1.15,2009-01-22 22:07:00,
2009-01-22 14:08:00,47.6,47.1,30.02,NW,306,0.0,3.0,98,0.00,,,0.39,Wunderground v.1.15,2009-01-22 22:08:00,
2009-01-22 14:09:00,47.6,47.1,30.02,NW,306,0.0,3.0,98,0.00,,,0.39,Wunderground v.1.15,2009-01-22 22:09:00,
2009-01-22 14:11:00,47.7,47.2,30.02,NW,306,1.0,2.0,98,0.00,,,0.39,Wunderground v.1.15,2009-01-22 22:11:00,
2009-01-22 14:12:00,47.7,47.2,30.02,NW,306,2.0,2.0,98,0.00,,,0.39,Wunderground v.1.15,2009-01-22 22:12:00,
2009-01-22 14:13:00,47.6,47.1,30.02,NW,306,2.0,2.0,98,0.00,,,0.39,Wunderground v.1.15,2009-01-22 22:13:00,
2009-01-22 14:14:00,47.5,47.0,30.02,NW,306,0.0,2.0,98,0.00,,,0.39,Wunderground v.1.15,2009-01-22 22:14:00,
2009-01-22 14:16:00,47.5,47.0,30.02,NW,306,0.0,2.0,98,0.00,,,0.39,Wunderground v.1.15,2009-01-22 22:16:00,
2009-01-22 14:17:00,47.4,46.9,30.02,NW,306,0.0,2.0,98,0.00,,,0.39,Wunderground v.1.15,2009-01-22 22:17:00,
2009-01-22 14:18:00,47.6,47.1,30.02,NW,306,0.0,2.0,98,0.00,,,0.39,Wunderground v.1.15,2009-01-22 22:18:00,
2009-01-22 14:19:00,47.6,47.1,30.02,NW,306,0.0,2.0,98,0.00,,,0.39,Wunderground v.1.15,2009-01-22 22:19:00,
2009-01-22 14:21:00,47.5,47.0,30.02,NW,306,0.0,1.0,98,0.00,,,0.39,Wunderground v.1.15,2009-01-22 22:21:00,
2009-01-22 14:22:00,47.6,47.1,30.01,NW,306,0.0,1.0,98,0.00,,,0.39,Wunderground v.1.15,2009-01-22 22:22:00,
2009-01-22 14:23:00,47.9,47.4,30.01,NW,306,0.0,1.0,98,0.00,,,0.39,Wunderground v.1.15,2009-01-22 22:23:00,
2009-01-22 14:25:00,48.0,47.5,30.01,NW,306,0.0,1.0,98,0.00,,,0.39,Wunderground v.1.15,2009-01-22 22:25:00,
2009-01-22 14:26:00,48.2,47.7,30.01,NW,306,0.0,1.0,98,0.00,,,0.39,Wunderground v.1.15,2009-01-22 22:26:00,
2009-01-22 14:27:00,48.2,48.2,30.01,NW,306,0.0,1.0,100,0.00,,,0.39,Wunderground v.1.15,2009-01-22 22:27:00,
2009-01-22 14:28:00,48.2,47.7,30.01,NW,306,0.0,1.0,98,0.00,,,0.39,Wunderground v.1.15,2009-01-22 22:28:00,
2009-01-22 14:30:00,48.4,47.9,30.02,NW,306,0.0,1.0,98,0.00,,,0.39,Wunderground v.1.15,2009-01-22 22:30:00,
2009-01-22 14:31:00,48.5,48.0,30.02,NW,306,0.0,1.0,98,0.00,,,0.39,Wunderground v.1.15,2009-01-22 22:31:00,
2009-01-22 14:32:00,48.5,48.0,30.02,NW,306,1.0,1.0,98,0.00,,,0.39,Wunderground v.1.15,2009-01-22 22:32:00,
2009-01-22 14:34:00,48.3,47.8,30.02,NW,306,2.0,2.0,98,0.00,,,0.39,Wunderground v.1.15,2009-01-22 22:34:00,
2009-01-22 14:35:00,48.1,47.6,30.02,NW,306,0.0,2.0,98,0.00,,,0.39,Wunderground v.1.15,2009-01-22 22:35:00,
2009-01-22 14:36:00,48.0,47.5,30.02,NW,306,0.0,2.0,98,0.00,,,0.39,Wunderground v.1.15,2009-01-22 22:36:00,
2009-01-22 14:37:00,48.1,47.6,30.02,NW,306,0.0,2.0,98,0.00,,,0.39,Wunderground v.1.15,2009-01-22 22:37:00,
2009-01-22 14:39:00,48.1,47.6,30.02,NW,306,0.0,2.0,98,0.00,,,0.39,Wunderground v.1.15,2009-01-22 22:39:00,
2009-01-22 14:40:00,48.2,47.7,30.02,NW,306,0.0,0.0,98,0.00,,,0.39,Wunderground v.1.15,2009-01-22 22:40:00,
2009-01-22 14:41:00,48.3,47.8,30.01,NE,38,0.0,4.0,98,0.00,,,0.39,Wunderground v.1.15,2009-01-22 22:41:00,
2009-01-22 14:43:00,48.3,47.8,30.02,ENE,71,2.0,5.0,98,0.00,,,0.39,Wunderground v.1.15,2009-01-22 22:43:00,
2009-01-22 14:44:00,48.3,47.8,30.02,ENE,69,3.0,6.0,98,0.00,,,0.39,Wunderground v.1.15,2009-01-22 22:44:00,
2009-01-22 14:45:00,48.2,47.7,30.02,ENE,69,2.0,6.0,98,0.00,,,0.39,Wunderground v.1.15,2009-01-22 22:45:00,
2009-01-22 14:46:00,48.1,47.6,30.02,ENE,69,3.0,6.0,98,0.00,,,0.39,Wunderground v.1.15,2009-01-22 22:46:00,
2009-01-22 14:49:00,48.0,47.5,30.02,ENE,65,2.0,6.0,98,0.00,,,0.39,Wunderground v.1.15,2009-01-22 22:49:00,
2009-01-22 14:50:00,48.0,47.5,30.02,ENE,64,4.0,6.0,98,0.00,,,0.39,Wunderground v.1.15,2009-01-22 22:50:00,
2009-01-22 14:52:00,48.0,47.5,30.02,ENE,64,2.0,6.0,98,0.00,,,0.39,Wunderground v.1.15,2009-01-22 22:52:00,
2009-01-22 14:54:00,47.9,47.4,30.02,ENE,66,3.0,6.0,98,0.00,,,0.39,Wunderground v.1.15,2009-01-22 22:54:00,
2009-01-22 14:55:00,47.9,47.4,30.02,ENE,65,3.0,6.0,98,0.00,,,0.39,Wunderground v.1.15,2009-01-22 22:55:00,
2009-01-22 14:57:00,47.9,47.4,30.02,ENE,66,3.0,6.0,98,0.00,,,0.39,Wunderground v.1.15,2009-01-22 22:57:00,
2009-01-22 14:59:00,47.8,47.3,30.01,ENE,67,4.0,6.0,98,0.00,,,0.39,Wunderground v.1.15,2009-01-22 22:59:00,
2009-01-22 15:00:00,47.8,47.3,30.01,ENE,68,4.0,5.0,98,0.00,,,0.39,Wunderground v.1.15,2009-01-22 23:00:00,
2009-01-22 15:02:00,47.8,47.3,30.01,ENE,69,5.0,6.0,98,0.00,,,0.39,Wunderground v.1.15,2009-01-22 23:02:00,
2009-01-22 15:05:00,47.7,47.2,30.01,ENE,69,3.0,6.0,98,0.00,,,0.39,Wunderground v.1.15,2009-01-22 23:05:00,
2009-01-22 15:06:00,47.7,47.2,30.01,ENE,69,2.0,6.0,98,0.00,,,0.39,Wunderground v.1.15,2009-01-22 23:06:00,
2009-01-22 15:07:00,47.7,47.2,30.01,ENE,69,2.0,6.0,98,0.00,,,0.39,Wunderground v.1.15,2009-01-22 23:07:00,
2009-01-22 15:10:00,47.8,47.3,30.01,ENE,69,3.0,3.0,98,0.00,,,0.39,Wunderground v.1.15,2009-01-22 23:10:00,
2009-01-22 15:11:00,47.8,47.3,30.01,ENE,69,3.0,4.0,98,0.00,,,0.39,Wunderground v.1.15,2009-01-22 23:11:00,
2009-01-22 15:12:00,47.8,47.3,30.01,ENE,68,3.0,4.0,98,0.00,,,0.39,Wunderground v.1.15,2009-01-22 23:12:00,
2009-01-22 15:15:00,47.8,47.3,30.01,ENE,64,5.0,5.0,98,0.00,,,0.39,Wunderground v.1.15,2009-01-22 23:15:00,
2009-01-22 15:16:00,47.7,47.2,30.01,ENE,74,6.0,6.0,98,0.00,,,0.39,Wunderground v.1.15,2009-01-22 23:16:00,
2009-01-22 15:17:00,47.7,47.2,30.01,ENE,71,5.0,6.0,98,0.00,,,0.39,Wunderground v.1.15,2009-01-22 23:17:00,
2009-01-22 15:20:00,47.8,47.3,30.01,ENE,71,3.0,4.0,98,0.00,,,0.39,Wunderground v.1.15,2009-01-22 23:20:00,
2009-01-22 15:21:00,47.8,47.3,30.01,ENE,71,2.0,4.0,98,0.00,,,0.39,Wunderground v.1.15,2009-01-22 23:21:00,
2009-01-22 15:22:00,47.8,47.3,30.01,ENE,75,3.0,5.0,98,0.00,,,0.39,Wunderground v.1.15,2009-01-22 23:22:00,
2009-01-22 15:26:00,47.8,47.3,30.01,ENE,60,5.0,7.0,98,0.00,,,0.39,Wunderground v.1.15,2009-01-22 23:26:00,
2009-01-22 15:27:00,47.7,47.2,30.01,ENE,66,4.0,7.0,98,0.00,,,0.39,Wunderground v.1.15,2009-01-22 23:27:00,
2009-01-22 15:31:00,47.7,47.2,30.02,ENE,67,2.0,7.0,98,0.00,,,0.39,Wunderground v.1.15,2009-01-22 23:31:00,
2009-01-22 15:32:00,47.7,47.2,30.02,ENE,67,2.0,7.0,98,0.00,,,0.39,Wunderground v.1.15,2009-01-22 23:32:00,
2009-01-22 15:36:00,47.7,47.2,30.01,ENE,65,4.0,7.0,98,0.00,,,0.39,Wunderground v.1.15,2009-01-22 23:36:00,
2009-01-22 15:37:00,47.7,47.2,30.01,ENE,65,3.0,7.0,98,0.00,,,0.39,Wunderground v.1.15,2009-01-22 23:37:00,
2009-01-22 15:42:00,47.6,47.1,30.01,ENE,63,7.0,10.0,98,0.00,,,0.39,Wunderground v.1.15,2009-01-22 23:42:00,
2009-01-22 15:43:00,47.5,47.0,30.01,ENE,60,7.0,10.0,98,0.00,,,0.39,Wunderground v.1.15,2009-01-22 23:43:00,
2009-01-22 15:47:00,47.5,47.0,30.01,ENE,61,4.0,10.0,98,0.00,,,0.39,Wunderground v.1.15,2009-01-22 23:47:00,
2009-01-22 15:48:00,47.5,47.0,30.02,ENE,61,2.0,10.0,98,0.00,,,0.39,Wunderground v.1.15,2009-01-22 23:48:00,
2009-01-22 15:52:00,47.6,47.1,30.02,ENE,61,3.0,5.0,98,0.00,,,0.39,Wunderground v.1.15,2009-01-22 23:52:00,
2009-01-22 15:53:00,47.6,47.1,30.02,ENE,61,3.0,5.0,98,0.00,,,0.39,Wunderground v.1.15,2009-01-22 23:53:00,
2009-01-22 15:57:00,47.5,47.0,30.02,ENE,64,2.0,7.0,98,0.00,,,0.39,Wunderground v.1.15,2009-01-22 23:57:00,
2009-01-22 15:58:00,47.5,47.0,30.02,ENE,64,5.0,7.0,98,0.00,,,0.39,Wunderground v.1.15,2009-01-22 23:58:00,
2009-01-22 16:02:00,47.5,47.0,30.02,ENE,64,3.0,4.0,98,0.00,,,0.39,Wunderground v.1.15,2009-01-23 00:02:00,
2009-01-22 16:03:00,47.5,47.0,30.02,ENE,59,4.0,6.0,98,0.00,,,0.39,Wunderground v.1.15,2009-01-23 00:03:00,
2009-01-22 16:04:00,47.5,47.0,30.02,ENE,59,4.0,6.0,98,0.00,,,0.39,Wunderground v.1.15,2009-01-23 00:04:00,
2009-01-22 16:07:00,47.5,47.0,30.01,ENE,65,5.0,7.0,98,0.00,,,0.39,Wunderground v.1.15,2009-01-23 00:07:00,
2009-01-22 16:08:00,47.5,47.0,30.01,ENE,69,4.0,7.0,98,0.00,,,0.39,Wunderground v.1.15,2009-01-23 00:08:00,
2009-01-22 16:09:00,47.5,47.0,30.01,ENE,70,0.0,7.0,98,0.00,,,0.39,Wunderground v.1.15,2009-01-23 00:09:00,
2009-01-22 16:12:00,47.7,47.2,30.01,ENE,61,6.0,6.0,98,0.00,,,0.39,Wunderground v.1.15,2009-01-23 00:12:00,
2009-01-22 16:13:00,47.7,47.2,30.01,ENE,64,1.0,6.0,98,0.00,,,0.39,Wunderground v.1.15,2009-01-23 00:13:00,
2009-01-22 16:14:00,47.7,47.2,30.01,ENE,64,2.0,6.0,98,0.00,,,0.39,Wunderground v.1.15,2009-01-23 00:14:00,
2009-01-22 16:17:00,47.8,47.3,30.02,ENE,74,4.0,7.0,98,0.00,,,0.39,Wunderground v.1.15,2009-01-23 00:17:00,
2009-01-22 16:18:00,47.8,47.3,30.02,ENE,74,3.0,7.0,98,0.00,,,0.39,Wunderground v.1.15,2009-01-23 00:18:00,
2009-01-22 16:19:00,47.8,47.3,30.02,ENE,66,2.0,7.0,98,0.00,,,0.39,Wunderground v.1.15,2009-01-23 00:19:00,
2009-01-22 16:22:00,47.8,47.3,30.02,ENE,65,7.0,7.0,98,0.00,,,0.39,Wunderground v.1.15,2009-01-23 00:22:00,
2009-01-22 16:23:00,47.7,47.2,30.02,ENE,67,6.0,7.0,98,0.00,,,0.39,Wunderground v.1.15,2009-01-23 00:23:00,
2009-01-22 16:24:00,47.7,47.2,30.02,ENE,61,5.0,7.0,98,0.00,,,0.39,Wunderground v.1.15,2009-01-23 00:24:00,
2009-01-22 16:28:00,47.6,47.1,30.02,ENE,64,2.0,7.0,98,0.00,,,0.39,Wunderground v.1.15,2009-01-23 00:28:00,
2009-01-22 16:29:00,47.6,47.1,30.02,ENE,66,1.0,7.0,98,0.00,,,0.39,Wunderground v.1.15,2009-01-23 00:29:00,
2009-01-22 16:30:00,47.7,47.2,30.02,ENE,66,3.0,3.0,98,0.00,,,0.39,Wunderground v.1.15,2009-01-23 00:30:00,
2009-01-22 16:33:00,47.7,47.2,30.02,ENE,57,3.0,6.0,98,0.00,,,0.39,Wunderground v.1.15,2009-01-23 00:33:00,
2009-01-22 16:34:00,47.6,47.1,30.02,East,79,1.0,6.0,98,0.00,,,0.39,Wunderground v.1.15,2009-01-23 00:34:00,
2009-01-22 16:35:00,47.6,47.1,30.02,ENE,67,4.0,6.0,98,0.00,,,0.39,Wunderground v.1.15,2009-01-23 00:35:00,
2009-01-22 16:38:00,47.4,46.9,30.02,ENE,65,1.0,6.0,98,0.00,,,0.39,Wunderground v.1.15,2009-01-23 00:38:00,
2009-01-22 16:39:00,47.4,46.9,30.02,ENE,65,3.0,6.0,98,0.00,,,0.39,Wunderground v.1.15,2009-01-23 00:39:00,
2009-01-22 16:40:00,47.4,46.9,30.02,ENE,65,2.0,2.0,98,0.00,,,0.39,Wunderground v.1.15,2009-01-23 00:40:00,
2009-01-22 16:43:00,47.3,46.8,30.02,ENE,73,5.0,7.0,98,0.00,,,0.39,Wunderground v.1.15,2009-01-23 00:43:00,
2009-01-22 16:45:00,47.3,46.8,30.02,ENE,68,3.0,7.0,98,0.00,,,0.39,Wunderground v.1.15,2009-01-23 00:45:00,
2009-01-22 16:46:00,47.2,46.7,30.02,ENE,71,5.0,7.0,98,0.00,,,0.39,Wunderground v.1.15,2009-01-23 00:46:00,
2009-01-22 16:49:00,47.2,46.7,30.02,ENE,69,2.0,7.0,98,0.00,,,0.39,Wunderground v.1.15,2009-01-23 00:49:00,
2009-01-22 16:50:00,47.2,46.7,30.02,ENE,69,1.0,4.0,98,0.00,,,0.39,Wunderground v.1.15,2009-01-23 00:50:00,
2009-01-22 16:51:00,47.2,46.7,30.02,ENE,63,3.0,4.0,98,0.00,,,0.39,Wunderground v.1.15,2009-01-23 00:51:00,
2009-01-22 16:54:00,47.2,46.9,30.02,ENE,74,4.0,6.0,99,0.00,,,0.39,Wunderground v.1.15,2009-01-23 00:54:00,
2009-01-22 16:55:00,47.2,46.9,30.02,ENE,76,2.0,6.0,99,0.00,,,0.39,Wunderground v.1.15,2009-01-23 00:55:00,
2009-01-22 16:56:00,47.2,46.9,30.02,ENE,76,2.0,6.0,99,0.00,,,0.39,Wunderground v.1.15,2009-01-23 00:56:00,
2009-01-22 16:59:00,47.1,46.8,30.02,ENE,63,3.0,7.0,99,0.00,,,0.39,Wunderground v.1.15,2009-01-23 00:59:00,
2009-01-22 17:00:00,47.1,46.8,30.02,ENE,65,0.0,5.0,99,0.00,,,0.39,Wunderground v.1.15,2009-01-23 01:00:00,
2009-01-22 17:01:00,47.1,46.8,30.01,ENE,64,2.0,5.0,99,0.00,,,0.39,Wunderground v.1.15,2009-01-23 01:01:00,
2009-01-22 17:04:00,47.2,46.9,30.01,ENE,70,4.0,7.0,99,0.00,,,0.39,Wunderground v.1.15,2009-01-23 01:04:00,
2009-01-22 17:05:00,47.1,46.8,30.01,ENE,68,5.0,7.0,99,0.00,,,0.39,Wunderground v.1.15,2009-01-23 01:05:00,
2009-01-22 17:06:00,47.1,46.8,30.01,ENE,69,9.0,9.0,99,0.00,,,0.39,Wunderground v.1.15,2009-01-23 01:06:00,
2009-01-22 17:07:00,47.1,46.8,30.01,ENE,65,3.0,9.0,99,0.00,,,0.39,Wunderground v.1.15,2009-01-23 01:07:00,
2009-01-22 17:10:00,47.1,46.6,30.01,ENE,63,10.0,10.0,98,0.00,,,0.39,Wunderground v.1.15,2009-01-23 01:10:00,
2009-01-22 17:11:00,47.1,46.6,30.01,ENE,64,5.0,10.0,98,0.00,,,0.39,Wunderground v.1.15,2009-01-23 01:11:00,
2009-01-22 17:12:00,47.1,46.6,30.01,ENE,57,2.0,10.0,98,0.00,,,0.39,Wunderground v.1.15,2009-01-23 01:12:00,
2009-01-22 17:15:00,47.1,46.8,30.01,ENE,66,4.0,10.0,99,0.00,,,0.39,Wunderground v.1.15,2009-01-23 01:15:00,
2009-01-22 17:16:00,47.1,46.8,30.01,ENE,61,9.0,10.0,99,0.00,,,0.39,Wunderground v.1.15,2009-01-23 01:16:00,
2009-01-22 17:17:00,47.1,46.8,30.01,ENE,74,8.0,10.0,99,0.00,,,0.39,Wunderground v.1.15,2009-01-23 01:17:00,
2009-01-22 17:20:00,47.1,46.8,30.01,ENE,74,4.0,11.0,99,0.00,,,0.39,Wunderground v.1.15,2009-01-23 01:20:00,
2009-01-22 17:21:00,47.1,46.8,30.01,NE,43,6.0,11.0,99,0.00,,,0.39,Wunderground v.1.15,2009-01-23 01:21:00,
2009-01-22 17:22:00,47.1,46.8,30.01,ENE,78,7.0,11.0,99,0.00,,,0.39,Wunderground v.1.15,2009-01-23 01:22:00,
2009-01-22 17:25:00,47.2,46.9,30.01,ENE,61,7.0,11.0,99,0.00,,,0.39,Wunderground v.1.15,2009-01-23 01:25:00,
2009-01-22 17:27:00,47.2,46.9,30.01,ENE,70,7.0,14.0,99,0.00,,,0.39,Wunderground v.1.15,2009-01-23 01:27:00,
2009-01-22 17:30:00,47.2,46.9,30.01,ENE,74,4.0,7.0,99,0.00,,,0.39,Wunderground v.1.15,2009-01-23 01:30:00,
2009-01-22 17:32:00,47.2,46.9,30.01,ENE,61,8.0,11.0,99,0.00,,,0.39,Wunderground v.1.15,2009-01-23 01:32:00,
2009-01-22 17:36:00,47.2,46.9,30.01,ENE,69,5.0,11.0,99,0.00,,,0.39,Wunderground v.1.15,2009-01-23 01:36:00,
2009-01-22 17:37:00,47.2,46.9,30.01,ENE,59,7.0,11.0,99,0.00,,,0.39,Wunderground v.1.15,2009-01-23 01:37:00,
2009-01-22 17:38:00,47.2,46.9,30.01,East,82,4.0,11.0,99,0.00,,,0.39,Wunderground v.1.15,2009-01-23 01:38:00,
2009-01-22 17:41:00,47.2,46.9,30.01,East,80,6.0,9.0,99,0.00,,,0.39,Wunderground v.1.15,2009-01-23 01:41:00,
2009-01-22 17:42:00,47.3,47.0,30.01,ENE,68,6.0,9.0,99,0.00,,,0.39,Wunderground v.1.15,2009-01-23 01:42:00,
2009-01-22 17:43:00,47.3,47.0,30.01,ENE,77,9.0,9.0,99,0.00,,,0.39,Wunderground v.1.15,2009-01-23 01:43:00,
2009-01-22 17:46:00,47.3,47.0,30.01,ENE,74,6.0,10.0,99,0.00,,,0.39,Wunderground v.1.15,2009-01-23 01:46:00,
2009-01-22 17:47:00,47.3,47.0,30.01,East,90,6.0,10.0,99,0.00,,,0.39,Wunderground v.1.15,2009-01-23 01:47:00,
2009-01-22 17:48:00,47.3,47.0,30.01,ESE,107,6.0,10.0,99,0.00,,,0.39,Wunderground v.1.15,2009-01-23 01:48:00,
2009-01-22 17:52:00,47.4,47.1,30.01,ENE,63,7.0,10.0,99,0.00,,,0.39,Wunderground v.1.15,2009-01-23 01:52:00,
2009-01-22 17:53:00,47.3,47.0,30.01,ENE,62,6.0,11.0,99,0.00,,,0.39,Wunderground v.1.15,2009-01-23 01:53:00,
2009-01-22 17:57:00,47.3,47.0,30.01,ENE,74,7.0,11.0,99,0.00,,,0.39,Wunderground v.1.15,2009-01-23 01:57:00,
2009-01-22 17:58:00,47.3,47.0,30.01,East,80,5.0,11.0,99,0.00,,,0.39,Wunderground v.1.15,2009-01-23 01:58:00,
2009-01-22 18:02:00,47.3,47.0,30.01,ENE,75,6.0,12.0,99,0.00,,,0.39,Wunderground v.1.15,2009-01-23 02:02:00,
2009-01-22 18:03:00,47.3,47.0,30.01,ENE,75,7.0,12.0,99,0.00,,,0.39,Wunderground v.1.15,2009-01-23 02:03:00,
2009-01-22 18:04:00,47.3,47.0,30.01,NE,37,9.0,12.0,99,0.00,,,0.39,Wunderground v.1.15,2009-01-23 02:04:00,
2009-01-22 18:07:00,47.2,46.9,30.02,ENE,73,3.0,12.0,99,0.00,,,0.39,Wunderground v.1.15,2009-01-23 02:07:00,
2009-01-22 18:08:00,47.2,46.9,30.02,ENE,69,7.0,12.0,99,0.00,,,0.39,Wunderground v.1.15,2009-01-23 02:08:00,
2009-01-22 18:09:00,47.2,46.9,30.02,ENE,60,9.0,12.0,99,0.00,,,0.39,Wunderground v.1.15,2009-01-23 02:09:00,
2009-01-22 18:10:00,47.2,46.9,30.02,East,82,9.0,9.0,99,0.00,,,0.39,Wunderground v.1.15,2009-01-23 02:10:00,
2009-01-22 18:12:00,47.1,46.8,30.02,East,84,5.0,9.0,99,0.00,,,0.39,Wunderground v.1.15,2009-01-23 02:12:00,
2009-01-22 18:13:00,47.1,46.8,30.02,ENE,59,5.0,9.0,99,0.00,,,0.39,Wunderground v.1.15,2009-01-23 02:13:00,
2009-01-22 18:14:00,47.1,46.8,30.02,East,84,4.0,9.0,99,0.00,,,0.39,Wunderground v.1.15,2009-01-23 02:14:00,
2009-01-22 18:15:00,47.1,46.8,30.02,NE,51,6.0,9.0,99,0.00,,,0.39,Wunderground v.1.15,2009-01-23 02:15:00,
2009-01-22 18:17:00,47.1,46.8,30.02,ENE,57,7.0,9.0,99,0.00,,,0.39,Wunderground v.1.15,2009-01-23 02:17:00,
2009-01-22 18:19:00,47.1,46.8,30.02,ENE,74,5.0,9.0,99,0.00,,,0.39,Wunderground v.1.15,2009-01-23 02:19:00,
2009-01-22 18:20:00,47.1,46.8,30.02,ENE,71,5.0,6.0,99,0.00,,,0.39,Wunderground v.1.15,2009-01-23 02:20:00,
2009-01-22 18:22:00,47.1,46.8,30.02,ENE,71,4.0,9.0,99,0.00,,,0.39,Wunderground v.1.15,2009-01-23 02:22:00,
2009-01-22 18:24:00,47.1,46.8,30.02,ENE,71,3.0,9.0,99,0.00,,,0.39,Wunderground v.1.15,2009-01-23 02:24:00,
2009-01-22 18:25:00,47.1,46.8,30.02,ENE,63,4.0,9.0,99,0.00,,,0.39,Wunderground v.1.15,2009-01-23 02:25:00,
2009-01-22 18:28:00,47.1,46.8,30.02,East,84,5.0,9.0,99,0.00,,,0.39,Wunderground v.1.15,2009-01-23 02:28:00,
2009-01-22 18:29:00,47.0,46.5,30.02,ENE,58,5.0,9.0,98,0.00,,,0.39,Wunderground v.1.15,2009-01-23 02:29:00,
2009-01-22 18:30:00,47.1,46.6,30.02,ENE,78,4.0,6.0,98,0.00,,,0.39,Wunderground v.1.15,2009-01-23 02:30:00,
2009-01-22 18:33:00,47.1,46.8,30.02,ENE,71,3.0,9.0,99,0.00,,,0.39,Wunderground v.1.15,2009-01-23 02:33:00,
2009-01-22 18:35:00,47.1,46.6,30.02,East,83,5.0,9.0,98,0.00,,,0.39,Wunderground v.1.15,2009-01-23 02:35:00,
2009-01-22 18:38:00,47.1,46.6,30.01,ENE,72,4.0,9.0,98,0.00,,,0.39,Wunderground v.1.15,2009-01-23 02:38:00,
2009-01-22 18:40:00,47.1,46.6,30.02,ENE,67,5.0,5.0,98,0.00,,,0.39,Wunderground v.1.15,2009-01-23 02:40:00,
2009-01-22 18:43:00,47.1,46.6,30.01,ENE,78,7.0,8.0,98,0.00,,,0.39,Wunderground v.1.15,2009-01-23 02:43:00,
2009-01-22 18:45:00,47.2,46.7,30.01,ENE,69,5.0,11.0,98,0.00,,,0.39,Wunderground v.1.15,2009-01-23 02:45:00,
2009-01-22 18:46:00,47.2,46.7,30.01,East,101,4.0,11.0,98,0.00,,,0.39,Wunderground v.1.15,2009-01-23 02:46:00,
2009-01-22 18:48:00,47.2,46.9,30.02,East,82,6.0,11.0,99,0.00,,,0.39,Wunderground v.1.15,2009-01-23 02:48:00,
2009-01-22 18:50:00,47.2,46.9,30.01,ENE,67,9.0,9.0,99,0.00,,,0.39,Wunderground v.1.15,2009-01-23 02:50:00,
2009-01-22 18:51:00,47.2,46.9,30.01,ENE,75,5.0,9.0,99,0.00,,,0.39,Wunderground v.1.15,2009-01-23 02:51:00,
2009-01-22 18:53:00,47.3,47.0,30.01,ENE,75,6.0,9.0,99,0.00,,,0.39,Wunderground v.1.15,2009-01-23 02:53:00,
2009-01-22 18:55:00,47.2,46.9,30.01,ENE,61,11.0,11.0,99,0.00,,,0.39,Wunderground v.1.15,2009-01-23 02:55:00,
2009-01-22 18:56:00,47.2,46.9,30.01,East,83,4.0,11.0,99,0.00,,,0.39,Wunderground v.1.15,2009-01-23 02:56:00,
2009-01-22 18:58:00,47.3,47.0,30.01,ENE,71,6.0,11.0,99,0.00,,,0.39,Wunderground v.1.15,2009-01-23 02:58:00,
2009-01-22 19:00:00,47.3,47.0,30.01,ENE,74,7.0,10.0,99,0.00,,,0.39,Wunderground v.1.15,2009-01-23 03:00:00,
2009-01-22 19:01:00,47.3,47.0,30.01,ENE,66,7.0,10.0,99,0.00,,,0.39,Wunderground v.1.15,2009-01-23 03:01:00,
2009-01-22 19:02:00,47.3,47.0,30.01,ENE,72,5.0,10.0,99,0.00,,,0.39,Wunderground v.1.15,2009-01-23 03:02:00,
2009-01-22 19:04:00,47.3,47.0,30.01,ENE,76,5.0,11.0,99,0.00,,,0.39,Wunderground v.1.15,2009-01-23 03:04:00,
2009-01-22 19:05:00,47.2,46.9,30.01,ENE,67,9.0,11.0,99,0.00,,,0.39,Wunderground v.1.15,2009-01-23 03:05:00,
2009-01-22 19:06:00,47.2,46.7,30.01,NE,44,5.0,11.0,98,0.00,,,0.39,Wunderground v.1.15,2009-01-23 03:06:00,
2009-01-22 19:07:00,47.2,46.7,30.01,ENE,78,7.0,11.0,98,0.00,,,0.39,Wunderground v.1.15,2009-01-23 03:07:00,
2009-01-22 19:09:00,47.2,46.7,30.01,ENE,67,6.0,11.0,98,0.00,,,0.39,Wunderground v.1.15,2009-01-23 03:09:00,
2009-01-22 19:11:00,47.2,46.7,30.02,ENE,74,6.0,10.0,98,0.00,,,0.39,Wunderground v.1.15,2009-01-23 03:11:00,
2009-01-22 19:12:00,47.2,46.7,30.02,ENE,75,5.0,10.0,98,0.00,,,0.39,Wunderground v.1.15,2009-01-23 03:12:00,
2009-01-22 19:14:00,47.1,46.6,30.02,ENE,64,6.0,10.0,98,0.00,,,0.39,Wunderground v.1.15,2009-01-23 03:14:00,
2009-01-22 19:15:00,47.2,46.7,30.02,ENE,74,8.0,10.0,98,0.00,,,0.39,Wunderground v.1.15,2009-01-23 03:15:00,
2009-01-22 19:17:00,47.1,46.6,30.01,ENE,71,7.0,13.0,98,0.00,,,0.39,Wunderground v.1.15,2009-01-23 03:17:00,
2009-01-22 19:19:00,47.2,46.7,30.01,ENE,67,6.0,13.0,98,0.00,,,0.39,Wunderground v.1.15,2009-01-23 03:19:00,
2009-01-22 19:20:00,47.2,46.7,30.01,East,80,9.0,10.0,98,0.00,,,0.39,Wunderground v.1.15,2009-01-23 03:20:00,
2009-01-22 19:22:00,47.2,46.7,30.02,ENE,64,6.0,11.0,98,0.00,,,0.39,Wunderground v.1.15,2009-01-23 03:22:00,
2009-01-22 19:24:00,47.2,46.7,30.01,ENE,68,5.0,11.0,98,0.00,,,0.39,Wunderground v.1.15,2009-01-23 03:24:00,
2009-01-22 19:25:00,47.2,46.7,30.02,East,80,6.0,11.0,98,0.00,,,0.39,Wunderground v.1.15,2009-01-23 03:25:00,
2009-01-22 19:28:00,47.1,46.6,30.01,ENE,77,9.0,12.0,98,0.00,,,0.39,Wunderground v.1.15,2009-01-23 03:28:00,
2009-01-22 19:29:00,47.1,46.6,30.02,ENE,74,7.0,12.0,98,0.00,,,0.39,Wunderground v.1.15,2009-01-23 03:29:00,
2009-01-22 19:30:00,47.1,46.6,30.02,ENE,75,6.0,9.0,98,0.00,,,0.39,Wunderground v.1.15,2009-01-23 03:30:00,
2009-01-22 19:33:00,47.1,46.6,30.02,ENE,76,7.0,9.0,98,0.00,,,0.39,Wunderground v.1.15,2009-01-23 03:33:00,
2009-01-22 19:34:00,47.1,46.6,30.02,ENE,68,6.0,9.0,98,0.00,,,0.39,Wunderground v.1.15,2009-01-23 03:34:00,
2009-01-22 19:35:00,47.1,46.6,30.02,ENE,78,4.0,9.0,98,0.00,,,0.39,Wunderground v.1.15,2009-01-23 03:35:00,
2009-01-22 19:38:00,47.1,46.6,30.02,ENE,73,4.0,9.0,98,0.00,,,0.39,Wunderground v.1.15,2009-01-23 03:38:00,
2009-01-22 19:39:00,47.1,46.6,30.02,ENE,78,6.0,9.0,98,0.00,,,0.39,Wunderground v.1.15,2009-01-23 03:39:00,
2009-01-22 19:40:00,47.1,46.6,30.02,ENE,67,5.0,7.0,98,0.00,,,0.39,Wunderground v.1.15,2009-01-23 03:40:00,
2009-01-22 19:43:00,47.1,46.6,30.02,ENE,69,8.0,8.0,98,0.00,,,0.39,Wunderground v.1.15,2009-01-23 03:43:00,
2009-01-22 19:45:00,47.2,46.7,30.02,East,80,5.0,9.0,98,0.00,,,0.39,Wunderground v.1.15,2009-01-23 03:45:00,
2009-01-22 19:46:00,47.2,46.7,30.02,ENE,74,7.0,9.0,98,0.00,,,0.39,Wunderground v.1.15,2009-01-23 03:46:00,
2009-01-22 19:48:00,47.2,46.9,30.02,ENE,78,5.0,10.0,99,0.00,,,0.39,Wunderground v.1.15,2009-01-23 03:48:00,
2009-01-22 19:50:00,47.2,46.9,30.02,ENE,73,5.0,7.0,99,0.00,,,0.39,Wunderground v.1.15,2009-01-23 03:50:00,
2009-01-22 19:51:00,47.2,46.9,30.02,East,89,6.0,8.0,99,0.00,,,0.39,Wunderground v.1.15,2009-01-23 03:51:00,
2009-01-22 19:54:00,47.2,46.9,30.02,East,90,9.0,12.0,99,0.00,,,0.39,Wunderground v.1.15,2009-01-23 03:54:00,
2009-01-22 19:55:00,47.3,47.0,30.02,ENE,78,5.0,12.0,99,0.00,,,0.39,Wunderground v.1.15,2009-01-23 03:55:00,
2009-01-22 19:56:00,47.3,47.0,30.02,East,86,9.0,12.0,99,0.00,,,0.39,Wunderground v.1.15,2009-01-23 03:56:00,
2009-01-22 19:59:00,47.3,47.0,30.02,ENE,72,7.0,12.0,99,0.00,,,0.39,Wunderground v.1.15,2009-01-23 03:59:00,
2009-01-22 20:00:00,47.4,47.1,30.03,East,80,7.0,7.0,99,0.00,,,0.39,Wunderground v.1.15,2009-01-23 04:00:00,
2009-01-22 20:01:00,47.4,47.1,30.03,East,88,2.0,8.0,99,0.00,,,0.39,Wunderground v.1.15,2009-01-23 04:01:00,
2009-01-22 20:02:00,47.4,47.1,30.03,ENE,72,5.0,8.0,99,0.00,,,0.39,Wunderground v.1.15,2009-01-23 04:02:00,
2009-01-22 20:04:00,47.4,47.1,30.03,East,91,0.0,8.0,99,0.00,,,0.39,Wunderground v.1.15,2009-01-23 04:04:00,
2009-01-22 20:05:00,47.4,47.1,30.03,East,91,0.0,8.0,99,0.00,,,0.39,Wunderground v.1.15,2009-01-23 04:05:00,
2009-01-22 20:06:00,47.4,47.1,30.04,East,91,0.0,8.0,99,0.00,,,0.39,Wunderground v.1.15,2009-01-23 04:06:00,
2009-01-22 20:07:00,47.4,47.1,30.04,East,92,0.0,8.0,99,0.00,,,0.39,Wunderground v.1.15,2009-01-23 04:07:00,
2009-01-22 20:09:00,47.4,47.1,30.03,ENE,57,1.0,8.0,99,0.00,,,0.39,Wunderground v.1.15,2009-01-23 04:09:00,
2009-01-22 20:11:00,47.4,47.1,30.03,ENE,65,6.0,6.0,99,0.00,,,0.39,Wunderground v.1.15,2009-01-23 04:11:00,
2009-01-22 20:12:00,47.4,47.1,30.03,ENE,68,5.0,6.0,99,0.00,,,0.39,Wunderground v.1.15,2009-01-23 04:12:00,
2009-01-22 20:15:00,47.4,47.1,30.03,ENE,68,3.0,6.0,99,0.00,,,0.39,Wunderground v.1.15,2009-01-23 04:15:00,
2009-01-22 20:16:00,47.4,47.1,30.03,ENE,64,2.0,8.0,99,0.00,,,0.39,Wunderground v.1.15,2009-01-23 04:16:00,
2009-01-22 20:17:00,47.5,47.2,30.03,ENE,67,5.0,8.0,99,0.00,,,0.39,Wunderground v.1.15,2009-01-23 04:17:00,
2009-01-22 20:20:00,47.5,47.2,30.03,ENE,76,4.0,4.0,99,0.00,,,0.39,Wunderground v.1.15,2009-01-23 04:20:00,
2009-01-22 20:21:00,47.5,47.2,30.03,ENE,71,1.0,5.0,99,0.00,,,0.39,Wunderground v.1.15,2009-01-23 04:21:00,
2009-01-22 20:22:00,47.5,47.2,30.03,ENE,71,4.0,6.0,99,0.00,,,0.39,Wunderground v.1.15,2009-01-23 04:22:00,
2009-01-22 20:25:00,47.4,47.1,30.03,ENE,69,3.0,6.0,99,0.00,,,0.39,Wunderground v.1.15,2009-01-23 04:25:00,
2009-01-22 20:26:00,47.5,47.2,30.03,ENE,72,5.0,9.0,99,0.00,,,0.39,Wunderground v.1.15,2009-01-23 04:26:00,
2009-01-22 20:27:00,47.5,47.2,30.03,ENE,71,2.0,9.0,99,0.00,,,0.39,Wunderground v.1.15,2009-01-23 04:27:00,
2009-01-22 20:30:00,47.4,47.1,30.04,East,80,3.0,6.0,99,0.00,,,0.39,Wunderground v.1.15,2009-01-23 04:30:00,
2009-01-22 20:31:00,47.4,47.1,30.03,ENE,77,3.0,9.0,99,0.00,,,0.39,Wunderground v.1.15,2009-01-23 04:31:00,
2009-01-22 20:32:00,47.5,47.2,30.03,ENE,77,3.0,9.0,99,0.00,,,0.39,Wunderground v.1.15,2009-01-23 04:32:00,
2009-01-22 20:36:00,47.4,47.1,30.03,ENE,74,1.0,9.0,99,0.00,,,0.39,Wunderground v.1.15,2009-01-23 04:36:00,
2009-01-22 20:37:00,47.4,47.1,30.03,ENE,74,1.0,9.0,99,0.00,,,0.39,Wunderground v.1.15,2009-01-23 04:37:00,
2009-01-22 20:38:00,47.5,47.2,30.03,ENE,74,2.0,9.0,99,0.00,,,0.39,Wunderground v.1.15,2009-01-23 04:38:00,
2009-01-22 20:41:00,47.4,47.1,30.03,East,80,2.0,5.0,99,0.00,,,0.39,Wunderground v.1.15,2009-01-23 04:41:00,
2009-01-22 20:42:00,47.4,47.1,30.03,East,81,5.0,5.0,99,0.00,,,0.39,Wunderground v.1.15,2009-01-23 04:42:00,
2009-01-22 20:43:00,47.4,47.1,30.03,East,80,2.0,6.0,99,0.00,,,0.39,Wunderground v.1.15,2009-01-23 04:43:00,
2009-01-22 20:47:00,47.4,47.1,30.03,ENE,73,2.0,6.0,99,0.00,,,0.39,Wunderground v.1.15,2009-01-23 04:47:00,
2009-01-22 20:48:00,47.4,47.1,30.03,ENE,63,2.0,6.0,99,0.00,,,0.39,Wunderground v.1.15,2009-01-23 04:48:00,
2009-01-22 20:52:00,47.4,47.1,30.03,ENE,64,2.0,4.0,99,0.00,,,0.39,Wunderground v.1.15,2009-01-23 04:52:00,
2009-01-22 20:53:00,47.4,47.1,30.03,ENE,64,1.0,4.0,99,0.00,,,0.39,Wunderground v.1.15,2009-01-23 04:53:00,
2009-01-22 20:57:00,47.4,47.1,30.03,ENE,64,1.0,4.0,99,0.00,,,0.39,Wunderground v.1.15,2009-01-23 04:57:00,
2009-01-22 20:58:00,47.4,47.1,30.03,ENE,64,3.0,4.0,99,0.00,,,0.39,Wunderground v.1.15,2009-01-23 04:58:00,
2009-01-22 20:59:00,47.4,47.1,30.03,ENE,64,3.0,4.0,99,0.00,,,0.39,Wunderground v.1.15,2009-01-23 04:59:00,
2009-01-22 21:00:00,47.4,47.1,30.03,ENE,64,2.0,4.0,99,0.00,,,0.39,Wunderground v.1.15,2009-01-23 05:00:00,
2009-01-22 21:01:00,47.4,47.1,30.03,ENE,65,2.0,4.0,99,0.00,,,0.39,Wunderground v.1.15,2009-01-23 05:01:00,
2009-01-22 21:06:00,47.3,47.0,30.03,ENE,67,5.0,6.0,99,0.00,,,0.39,Wunderground v.1.15,2009-01-23 05:06:00,
2009-01-22 21:10:00,47.2,46.9,30.03,East,83,2.0,4.0,99,0.00,,,0.39,Wunderground v.1.15,2009-01-23 05:10:00,
2009-01-22 21:11:00,47.2,46.9,30.03,East,83,2.0,4.0,99,0.00,,,0.39,Wunderground v.1.15,2009-01-23 05:11:00,
2009-01-22 21:12:00,47.2,46.9,30.03,ENE,71,4.0,4.0,99,0.00,,,0.39,Wunderground v.1.15,2009-01-23 05:12:00,
2009-01-22 21:15:00,47.1,46.8,30.03,ENE,77,2.0,7.0,99,0.00,,,0.39,Wunderground v.1.15,2009-01-23 05:15:00,
2009-01-22 21:16:00,47.1,46.8,30.03,ENE,77,2.0,7.0,99,0.00,,,0.39,Wunderground v.1.15,2009-01-23 05:16:00,
2009-01-22 21:17:00,47.1,46.8,30.03,ENE,76,4.0,7.0,99,0.00,,,0.39,Wunderground v.1.15,2009-01-23 05:17:00,
2009-01-22 21:21:00,47.0,46.7,30.03,ENE,74,3.0,4.0,99,0.00,,,0.39,Wunderground v.1.15,2009-01-23 05:21:00,
2009-01-22 21:22:00,47.0,46.7,30.03,ENE,71,2.0,4.0,99,0.00,,,0.39,Wunderground v.1.15,2009-01-23 05:22:00,
2009-01-22 21:23:00,47.0,46.7,30.03,ENE,71,2.0,4.0,99,0.00,,,0.39,Wunderground v.1.15,2009-01-23 05:23:00,
2009-01-22 21:26:00,47.0,46.7,30.03,East,83,2.0,5.0,99,0.00,,,0.39,Wunderground v.1.15,2009-01-23 05:26:00,
2009-01-22 21:27:00,47.0,46.7,30.03,East,82,3.0,5.0,99,0.00,,,0.39,Wunderground v.1.15,2009-01-23 05:27:00,
2009-01-22 21:28:00,47.0,46.7,30.03,ENE,69,2.0,5.0,99,0.00,,,0.39,Wunderground v.1.15,2009-01-23 05:28:00,
2009-01-22 21:31:00,47.0,46.7,30.03,ENE,75,2.0,5.0,99,0.00,,,0.39,Wunderground v.1.15,2009-01-23 05:31:00,
2009-01-22 21:32:00,46.9,46.6,30.03,ENE,75,3.0,5.0,99,0.00,,,0.39,Wunderground v.1.15,2009-01-23 05:32:00,
2009-01-22 21:34:00,46.9,46.6,30.03,ENE,76,2.0,5.0,99,0.00,,,0.39,Wunderground v.1.15,2009-01-23 05:34:00,
2009-01-22 21:36:00,46.8,46.5,30.03,ENE,76,2.0,5.0,99,0.00,,,0.39,Wunderground v.1.15,2009-01-23 05:36:00,
2009-01-22 21:38:00,46.8,46.5,30.03,ENE,76,1.0,5.0,99,0.00,,,0.39,Wunderground v.1.15,2009-01-23 05:38:00,
2009-01-22 21:39:00,46.7,46.4,30.03,ENE,75,2.0,5.0,99,0.00,,,0.39,Wunderground v.1.15,2009-01-23 05:39:00,
2009-01-22 21:41:00,46.7,46.4,30.03,ENE,75,2.0,3.0,99,0.00,,,0.39,Wunderground v.1.15,2009-01-23 05:41:00,
2009-01-22 21:42:00,46.6,46.3,30.03,ENE,75,2.0,3.0,99,0.00,,,0.39,Wunderground v.1.15,2009-01-23 05:42:00,
2009-01-22 21:43:00,46.7,46.4,30.03,ENE,76,3.0,3.0,99,0.00,,,0.39,Wunderground v.1.15,2009-01-23 05:43:00,
2009-01-22 21:44:00,46.7,46.4,30.03,ENE,75,1.0,3.0,99,0.00,,,0.39,Wunderground v.1.15,2009-01-23 05:44:00,
2009-01-22 21:46:00,46.7,46.4,30.03,ENE,75,2.0,3.0,99,0.00,,,0.39,Wunderground v.1.15,2009-01-23 05:46:00,
2009-01-22 21:48:00,46.7,46.4,30.03,ENE,76,2.0,4.0,99,0.00,,,0.39,Wunderground v.1.15,2009-01-23 05:48:00,
2009-01-22 21:49:00,46.7,46.4,30.02,ENE,76,3.0,4.0,99,0.00,,,0.39,Wunderground v.1.15,2009-01-23 05:49:00,
2009-01-22 21:51:00,46.8,46.5,30.03,ENE,76,3.0,4.0,99,0.00,,,0.39,Wunderground v.1.15,2009-01-23 05:51:00,
2009-01-22 21:53:00,46.8,46.5,30.03,ENE,76,2.0,4.0,99,0.00,,,0.39,Wunderground v.1.15,2009-01-23 05:53:00,
2009-01-22 21:54:00,46.8,46.5,30.02,ENE,75,4.0,4.0,99,0.00,,,0.39,Wunderground v.1.15,2009-01-23 05:54:00,
2009-01-22 21:55:00,46.8,46.5,30.03,ENE,75,3.0,6.0,99,0.00,,,0.39,Wunderground v.1.15,2009-01-23 05:55:00,
2009-01-22 21:56:00,46.9,46.6,30.03,ENE,76,3.0,6.0,99,0.00,,,0.39,Wunderground v.1.15,2009-01-23 05:56:00,
2009-01-22 21:59:00,46.9,46.6,30.03,ENE,76,3.0,6.0,99,0.00,,,0.39,Wunderground v.1.15,2009-01-23 05:59:00,
2009-01-22 22:00:00,46.9,46.6,30.03,ENE,76,4.0,5.0,99,0.00,,,0.39,Wunderground v.1.15,2009-01-23 06:00:00,
2009-01-22 22:02:00,46.9,46.6,30.03,ENE,74,3.0,5.0,99,0.00,,,0.39,Wunderground v.1.15,2009-01-23 06:02:00,
2009-01-22 22:04:00,46.9,46.6,30.04,ENE,74,4.0,6.0,99,0.00,,,0.39,Wunderground v.1.15,2009-01-23 06:04:00,
2009-01-22 22:06:00,46.9,46.6,30.03,ENE,76,2.0,6.0,99,0.00,,,0.39,Wunderground v.1.15,2009-01-23 06:06:00,
2009-01-22 22:07:00,46.9,46.6,30.04,East,79,4.0,6.0,99,0.00,,,0.39,Wunderground v.1.15,2009-01-23 06:07:00,
2009-01-22 22:09:00,46.9,46.6,30.04,ENE,70,2.0,6.0,99,0.00,,,0.39,Wunderground v.1.15,2009-01-23 06:09:00,
2009-01-22 22:11:00,47.0,46.7,30.04,ENE,71,5.0,6.0,99,0.00,,,0.39,Wunderground v.1.15,2009-01-23 06:11:00,
2009-01-22 22:12:00,47.0,46.7,30.04,ENE,72,1.0,6.0,99,0.00,,,0.39,Wunderground v.1.15,2009-01-23 06:12:00,
2009-01-22 22:14:00,47.0,46.7,30.04,ENE,76,3.0,6.0,99,0.00,,,0.39,Wunderground v.1.15,2009-01-23 06:14:00,
2009-01-22 22:15:00,47.1,46.8,30.03,ENE,76,2.0,6.0,99,0.00,,,0.39,Wunderground v.1.15,2009-01-23 06:15:00,
2009-01-22 22:16:00,47.1,46.8,30.04,ENE,76,1.0,6.0,99,0.00,,,0.39,Wunderground v.1.15,2009-01-23 06:16:00,
2009-01-22 22:17:00,47.2,46.9,30.04,ENE,76,5.0,6.0,99,0.00,,,0.39,Wunderground v.1.15,2009-01-23 06:17:00,
2009-01-22 22:19:00,47.2,46.9,30.03,ENE,74,6.0,6.0,99,0.00,,,0.39,Wunderground v.1.15,2009-01-23 06:19:00,
2009-01-22 22:20:00,47.2,46.9,30.03,ENE,74,2.0,3.0,99,0.00,,,0.39,Wunderground v.1.15,2009-01-23 06:20:00,
2009-01-22 22:22:00,47.3,47.0,30.03,ENE,74,4.0,4.0,99,0.00,,,0.39,Wunderground v.1.15,2009-01-23 06:22:00,
2009-01-22 22:24:00,47.3,47.0,30.04,ENE,74,3.0,4.0,99,0.00,,,0.39,Wunderground v.1.15,2009-01-23 06:24:00,
2009-01-22 22:25:00,47.4,47.1,30.04,ENE,74,1.0,4.0,99,0.00,,,0.39,Wunderground v.1.15,2009-01-23 06:25:00,
2009-01-22 22:27:00,47.4,47.1,30.03,ENE,74,2.0,4.0,99,0.00,,,0.39,Wunderground v.1.15,2009-01-23 06:27:00,
2009-01-22 22:28:00,47.4,47.1,30.03,ENE,74,2.0,4.0,99,0.00,,,0.39,Wunderground v.1.15,2009-01-23 06:28:00,
2009-01-22 22:29:00,47.4,47.1,30.03,ENE,74,2.0,4.0,99,0.00,,,0.39,Wunderground v.1.15,2009-01-23 06:29:00,
2009-01-22 22:31:00,47.4,47.1,30.04,ENE,74,4.0,4.0,99,0.00,,,0.39,Wunderground v.1.15,2009-01-23 06:31:00,
2009-01-22 22:32:00,47.4,47.1,30.03,ENE,74,1.0,4.0,99,0.00,,,0.39,Wunderground v.1.15,2009-01-23 06:32:00,
2009-01-22 22:33:00,47.4,47.1,30.03,ENE,74,3.0,4.0,99,0.00,,,0.39,Wunderground v.1.15,2009-01-23 06:33:00,
2009-01-22 22:34:00,47.5,47.2,30.04,ENE,74,3.0,4.0,99,0.00,,,0.39,Wunderground v.1.15,2009-01-23 06:34:00,
2009-01-22 22:36:00,47.5,47.2,30.04,ENE,69,3.0,5.0,99,0.00,,,0.39,Wunderground v.1.15,2009-01-23 06:36:00,
2009-01-22 22:37:00,47.5,47.2,30.04,ENE,68,1.0,5.0,99,0.00,,,0.39,Wunderground v.1.15,2009-01-23 06:37:00,
2009-01-22 22:38:00,47.5,47.2,30.04,ENE,68,2.0,5.0,99,0.00,,,0.39,Wunderground v.1.15,2009-01-23 06:38:00,
2009-01-22 22:39:00,47.5,47.2,30.04,ENE,68,2.0,5.0,99,0.00,,,0.39,Wunderground v.1.15,2009-01-23 06:39:00,
2009-01-22 22:42:00,47.5,47.2,30.04,ENE,72,2.0,5.0,99,0.00,,,0.39,Wunderground v.1.15,2009-01-23 06:42:00,
2009-01-22 22:43:00,47.5,47.2,30.04,ENE,73,2.0,5.0,99,0.00,,,0.39,Wunderground v.1.15,2009-01-23 06:43:00,
2009-01-22 22:44:00,47.5,47.2,30.04,ENE,73,2.0,5.0,99,0.00,,,0.39,Wunderground v.1.15,2009-01-23 06:44:00,
2009-01-22 22:47:00,47.6,47.3,30.04,ENE,63,4.0,5.0,99,0.00,,,0.39,Wunderground v.1.15,2009-01-23 06:47:00,
2009-01-22 22:48:00,47.6,47.3,30.03,ENE,61,2.0,5.0,99,0.00,,,0.39,Wunderground v.1.15,2009-01-23 06:48:00,
2009-01-22 22:49:00,47.6,47.3,30.03,ENE,61,3.0,5.0,99,0.00,,,0.39,Wunderground v.1.15,2009-01-23 06:49:00,
2009-01-22 22:52:00,47.6,47.3,30.03,ENE,71,3.0,5.0,99,0.00,,,0.39,Wunderground v.1.15,2009-01-23 06:52:00,
2009-01-22 22:53:00,47.6,47.3,30.04,ENE,71,2.0,5.0,99,0.00,,,0.39,Wunderground v.1.15,2009-01-23 06:53:00,
2009-01-22 22:54:00,47.6,47.3,30.04,ENE,71,2.0,5.0,99,0.00,,,0.39,Wunderground v.1.15,2009-01-23 06:54:00,
2009-01-22 22:55:00,47.6,47.3,30.04,ENE,71,2.0,5.0,99,0.00,,,0.39,Wunderground v.1.15,2009-01-23 06:55:00,
2009-01-22 22:57:00,47.6,47.3,30.04,ENE,71,3.0,5.0,99,0.00,,,0.39,Wunderground v.1.15,2009-01-23 06:57:00,
2009-01-22 22:58:00,47.6,47.3,30.04,ENE,72,2.0,5.0,99,0.00,,,0.39,Wunderground v.1.15,2009-01-23 06:58:00,
2009-01-22 22:59:00,47.6,47.3,30.04,ENE,72,0.0,5.0,99,0.00,,,0.39,Wunderground v.1.15,2009-01-23 06:59:00,
2009-01-22 23:00:00,47.6,47.3,30.04,ENE,72,2.0,4.0,99,0.00,,,0.39,Wunderground v.1.15,2009-01-23 07:00:00,
2009-01-22 23:02:00,47.6,47.3,30.04,ENE,72,2.0,4.0,99,0.00,,,0.39,Wunderground v.1.15,2009-01-23 07:02:00,
2009-01-22 23:03:00,47.6,47.3,30.04,ENE,72,1.0,4.0,99,0.00,,,0.39,Wunderground v.1.15,2009-01-23 07:03:00,
2009-01-22 23:04:00,47.6,47.3,30.04,ENE,72,1.0,4.0,99,0.00,,,0.39,Wunderground v.1.15,2009-01-23 07:04:00,
2009-01-22 23:05:00,47.6,47.3,30.04,ENE,72,4.0,4.0,99,0.00,,,0.39,Wunderground v.1.15,2009-01-23 07:05:00,
2009-01-22 23:07:00,47.6,47.3,30.04,ENE,72,3.0,4.0,99,0.00,,,0.39,Wunderground v.1.15,2009-01-23 07:07:00,
2009-01-22 23:09:00,47.6,47.3,30.04,ENE,71,3.0,4.0,99,0.00,,,0.39,Wunderground v.1.15,2009-01-23 07:09:00,
2009-01-22 23:10:00,47.6,47.3,30.04,ENE,71,2.0,3.0,99,0.00,,,0.39,Wunderground v.1.15,2009-01-23 07:10:00,
2009-01-22 23:12:00,47.6,47.3,30.04,ENE,68,4.0,5.0,99,0.00,,,0.39,Wunderground v.1.15,2009-01-23 07:12:00,
2009-01-22 23:14:00,47.6,47.3,30.04,ENE,68,3.0,5.0,99,0.00,,,0.39,Wunderground v.1.15,2009-01-23 07:14:00,
2009-01-22 23:15:00,47.6,47.3,30.04,ENE,68,2.0,5.0,99,0.00,,,0.39,Wunderground v.1.15,2009-01-23 07:15:00,
2009-01-22 23:17:00,47.6,47.3,30.04,ENE,68,2.0,5.0,99,0.00,,,0.39,Wunderground v.1.15,2009-01-23 07:17:00,
2009-01-22 23:19:00,47.6,47.3,30.05,ENE,68,2.0,5.0,99,0.00,,,0.39,Wunderground v.1.15,2009-01-23 07:19:00,
2009-01-22 23:20:00,47.6,47.3,30.05,ENE,68,2.0,3.0,99,0.00,,,0.39,Wunderground v.1.15,2009-01-23 07:20:00,
2009-01-22 23:23:00,47.6,47.3,30.05,ENE,68,2.0,3.0,99,0.00,,,0.39,Wunderground v.1.15,2009-01-23 07:23:00,
2009-01-22 23:24:00,47.6,47.3,30.05,ENE,68,1.0,3.0,99,0.00,,,0.39,Wunderground v.1.15,2009-01-23 07:24:00,
2009-01-22 23:25:00,47.6,47.3,30.05,ENE,68,2.0,3.0,99,0.00,,,0.39,Wunderground v.1.15,2009-01-23 07:25:00,
2009-01-22 23:28:00,47.6,47.3,30.05,ENE,68,2.0,4.0,99,0.00,,,0.39,Wunderground v.1.15,2009-01-23 07:28:00,
2009-01-22 23:29:00,47.6,47.3,30.05,ENE,68,3.0,4.0,99,0.00,,,0.39,Wunderground v.1.15,2009-01-23 07:29:00,
2009-01-22 23:30:00,47.5,47.2,30.05,ENE,68,2.0,3.0,99,0.00,,,0.39,Wunderground v.1.15,2009-01-23 07:30:00,
2009-01-22 23:33:00,47.5,47.2,30.05,ENE,68,1.0,3.0,99,0.00,,,0.39,Wunderground v.1.15,2009-01-23 07:33:00,
2009-01-22 23:34:00,47.5,47.2,30.05,ENE,68,2.0,3.0,99,0.00,,,0.39,Wunderground v.1.15,2009-01-23 07:34:00,
2009-01-22 23:35:00,47.5,47.2,30.05,ENE,68,3.0,3.0,99,0.00,,,0.39,Wunderground v.1.15,2009-01-23 07:35:00,
2009-01-22 23:38:00,47.5,47.2,30.04,ENE,68,2.0,3.0,99,0.00,,,0.39,Wunderground v.1.15,2009-01-23 07:38:00,
2009-01-22 23:39:00,47.5,47.2,30.04,ENE,68,2.0,3.0,99,0.00,,,0.39,Wunderground v.1.15,2009-01-23 07:39:00,
2009-01-22 23:40:00,47.5,47.2,30.04,ENE,68,2.0,3.0,99,0.00,,,0.39,Wunderground v.1.15,2009-01-23 07:40:00,
2009-01-22 23:42:00,47.5,47.2,30.04,ENE,68,2.0,3.0,99,0.00,,,0.39,Wunderground v.1.15,2009-01-23 07:42:00,
2009-01-22 23:43:00,47.5,47.2,30.05,ENE,68,2.0,3.0,99,0.00,,,0.39,Wunderground v.1.15,2009-01-23 07:43:00,
2009-01-22 23:44:00,47.5,47.2,30.04,ENE,68,1.0,3.0,99,0.00,,,0.39,Wunderground v.1.15,2009-01-23 07:44:00,
2009-01-22 23:45:00,47.5,47.2,30.05,ENE,68,2.0,3.0,99,0.00,,,0.39,Wunderground v.1.15,2009-01-23 07:45:00,
2009-01-22 23:47:00,47.5,47.2,30.05,ENE,68,2.0,3.0,99,0.00,,,0.39,Wunderground v.1.15,2009-01-23 07:47:00,
2009-01-22 23:48:00,47.5,47.2,30.05,ENE,68,2.0,3.0,99,0.00,,,0.39,Wunderground v.1.15,2009-01-23 07:48:00,
2009-01-22 23:50:00,47.5,47.2,30.05,ENE,68,2.0,2.0,99,0.00,,,0.39,Wunderground v.1.15,2009-01-23 07:50:00,
2009-01-22 23:52:00,47.5,47.2,30.05,ENE,68,1.0,3.0,99,0.00,,,0.39,Wunderground v.1.15,2009-01-23 07:52:00,
2009-01-22 23:54:00,47.5,47.2,30.05,ENE,68,3.0,3.0,99,0.00,,,0.39,Wunderground v.1.15,2009-01-23 07:54:00,
2009-01-22 23:55:00,47.5,47.2,30.05,ENE,68,2.0,3.0,99,0.00,,,0.39,Wunderground v.1.15,2009-01-23 07:55:00,
2009-01-22 23:56:00,47.4,47.1,30.05,ENE,68,2.0,3.0,99,0.00,,,0.39,Wunderground v.1.15,2009-01-23 07:56:00,
2009-01-22 23:58:00,47.4,47.1,30.05,ENE,68,2.0,3.0,99,0.00,,,0.39,Wunderground v.1.15,2009-01-23 07:58:00,
2009-01-22 23:59:00,47.4,47.1,30.05,ENE,69,2.0,3.0,99,0.00,,,0.39,Wunderground v.1.15,2009-01-23 07:59:00,